GFSWCAN_925_spd_000.txt.gz
Wind_Speed
28 26 25 25 25 25 23 23 22 21 18 18 16 17 16 13 13 10 8 9 8 4 12 11 12 10 8 4 3 5 7 2 3 2 2 3 1 1 1 12 14 6 2 4 2 3 1 13 7 6 7 8 4 7
29 27 26 24 22 22 20 20 19 18 15 18 18 14 14 14 13 9 6 8 4 5 6 23 28 31 23 20 4 4 3 3 3 1 2 3 2 2 2 4 6 7 5 3 2 1 5 8 4 4 4 16 10 12
27 26 27 25 23 20 19 19 19 16 14 14 17 16 11 10 8 8 11 8 4 3 8 7 12 19 23 35 31 5 3 4 1 3 2 3 2 1 1 2 3 2 5 5 3 6 8 8 8 7 5 8 8 10
27 25 23 22 21 18 17 17 16 12 13 12 14 11 10 10 11 7 10 7 5 2 3 6 6 13 12 14 24 40 12 5 2 1 3 3 1 2 2 1 2 2 2 8 6 4 1 6 5 5 6 11 13 14
26 26 24 20 19 16 16 16 13 11 10 12 11 10 8 8 7 8 13 18 15 2 3 6 21 15 11 10 21 25 16 6 2 2 2 2 1 1 2 2 2 4 3 1 5 11 5 8 5 2 13 13 11 14
27 25 20 14 12 13 11 9 9 8 9 9 7 7 7 7 6 5 2 1 17 9 3 4 5 5 7 6 12 8 7 4 3 2 3 2 2 1 2 2 8 10 4 2 4 10 10 8 10 6 16 12 11 14
24 20 13 5 8 8 7 9 7 7 6 6 5 7 7 5 7 3 2 2 18 8 2 4 4 4 3 3 1 2 2 3 3 2 2 3 4 3 3 4 10 10 8 7 6 3 12 11 3 6 10 9 9 11
19 15 7 5 4 7 8 4 3 3 3 4 5 6 8 8 10 8 3 4 13 5 0 3 5 5 1 1 1 1 3 1 1 1 2 2 2 3 4 5 8 4 8 12 11 11 10 2 8 8 8 7 11 8
15 11 6 4 5 6 5 3 2 2 4 5 7 10 5 1 1 3 9 4 12 4 2 2 2 3 4 1 1 1 2 1 1 3 3 3 3 5 3 4 6 7 4 5 7 8 5 8 7 7 7 8 7 6
11 8 6 6 6 6 6 4 3 4 5 8 5 2 2 3 11 11 1 1 1 2 1 3 2 4 1 3 2 1 2 2 3 2 2 3 3 3 4 5 5 5 6 3 3 8 7 6 7 7 7 4 5 4
9 9 7 6 7 7 5 5 5 6 6 4 3 2 7 10 2 1 1 1 1 3 3 4 4 3 1 0 2 2 3 0 3 2 3 3 3 3 6 4 6 6 5 6 6 4 4 4 5 5 5 6 5 7
12 12 9 6 6 6 6 8 11 7 5 6 7 7 5 3 2 1 2 3 3 3 2 3 3 4 3 1 1 3 2 2 3 2 4 3 1 2 4 3 3 3 5 7 7 9 8 7 7 6 6 7 9 10
15 13 12 10 8 6 5 6 10 12 10 2 1 3 3 2 5 3 4 3 3 2 2 4 4 0 4 2 2 4 5 2 2 4 3 2 1 2 4 3 7 8 10 10 10 10 12 10 13 9 6 12 13 14
15 15 13 10 8 7 6 8 12 15 4 2 3 5 3 3 2 1 2 3 4 3 4 3 2 2 2 4 3 3 3 2 4 3 3 0 2 3 4 5 6 6 7 7 7 7 6 7 8 11 11 10 11 12
13 13 14 13 8 7 8 12 14 10 3 2 1 3 3 4 3 5 4 3 3 3 3 3 1 2 3 3 3 3 4 5 4 3 3 2 2 3 3 4 6 6 6 5 4 4 5 7 6 8 8 8 7 8
7 6 17 13 13 15 18 19 7 3 2 1 3 4 5 1 4 4 3 5 1 3 0 1 2 3 5 2 5 5 3 3 2 2 2 2 2 2 2 4 4 5 5 6 8 5 5 6 5 7 8 3 5 6
9 6 13 18 23 19 10 5 4 3 3 4 3 2 3 3 3 3 3 4 4 3 3 2 5 3 3 4 3 3 2 2 2 2 1 1 2 3 4 4 4 6 6 7 7 7 6 7 8 6 3 4 5 4
7 10 16 22 24 10 6 5 2 2 3 1 3 5 4 2 3 4 4 3 5 3 3 3 1 6 3 3 3 2 3 2 1 2 2 2 3 3 4 4 8 9 8 9 8 6 4 6 5 5 8 6 7 6
13 17 19 19 16 4 3 5 3 3 2 2 3 3 3 4 3 4 4 5 3 0 3 3 5 3 2 2 1 2 1 1 2 3 3 4 5 6 8 8 7 7 8 9 9 9 8 7 7 7 6 6 7 9
12 12 18 15 12 5 4 3 3 2 4 3 3 4 3 3 4 4 4 6 4 3 5 4 1 1 2 2 2 1 1 1 2 3 2 3 8 9 9 8 8 10 9 9 9 11 12 11 9 10 9 9 8 11
10 16 13 12 5 7 2 3 3 1 3 3 3 4 3 3 4 5 4 5 4 3 3 2 1 2 3 4 3 3 3 2 1 2 2 2 8 10 8 7 7 9 7 8 7 11 16 13 13 12 12 13 13 13
5 13 6 6 4 6 2 2 1 3 2 3 4 3 3 3 4 3 4 4 2 2 1 1 2 2 3 4 4 5 7 6 6 6 5 8 3 2 4 9 10 6 11 12 13 11 13 15 16 15 15 13 13 12
8 5 4 5 4 4 4 7 3 4 3 5 4 3 3 3 3 3 2 1 3 3 4 3 5 6 5 6 4 3 3 4 3 4 3 1 5 11 11 13 12 11 7 14 14 14 15 14 15 15 14 13 14 15
4 3 3 2 3 3 3 3 1 3 3 3 3 4 4 2 4 2 2 2 3 3 2 3 4 3 1 2 1 1 6 4 4 5 2 10 5 3 8 8 9 11 11 12 14 14 15 14 13 14 14 13 14 12
3 4 3 3 2 2 3 4 1 2 2 1 1 2 3 3 4 4 3 2 2 1 2 2 3 3 2 3 4 11 11 6 4 3 3 10 7 3 2 3 5 7 11 15 18 16 13 12 13 13 14 12 11 10
3 1 2 1 1 1 2 3 2 1 1 1 2 1 0 1 1 1 2 2 2 2 2 0 1 2 4 3 2 4 10 8 6 4 1 7 4 1 1 1 3 8 13 14 13 13 9 12 13 11 10 7 7 7
4 3 1 2 2 2 3 3 2 1 2 1 1 0 1 3 2 3 3 2 2 3 5 8 11 10 5 7 11 11 11 11 8 7 5 4 2 2 4 4 4 12 15 14 13 8 9 10 10 11 10 9 8 7
3 2 3 2 2 2 3 2 2 2 2 1 2 3 2 2 1 2 2 6 3 17 23 21 18 15 13 11 11 12 12 13 11 6 2 4 4 4 7 8 12 13 15 13 7 8 9 10 13 14 13 12 12 9
3 3 3 3 3 3 4 3 2 2 3 2 3 2 2 2 7 6 10 9 13 21 18 17 17 14 13 12 13 15 17 16 13 6 6 4 5 9 14 15 15 15 12 9 8 10 11 13 13 15 13 14 14 12
3 3 2 2 1 2 2 3 2 1 2 3 4 4 6 7 20 26 25 24 23 17 15 14 13 14 13 14 14 13 20 16 15 11 3 3 6 12 14 14 12 12 11 12 14 14 15 17 17 18 17 16 17 15
2 3 2 2 3 3 2 2 2 2 3 4 4 7 4 3 13 30 28 20 20 19 19 16 18 21 20 18 14 10 9 16 14 13 13 12 11 12 13 14 13 13 13 15 16 16 14 13 12 12 13 13 14 13
3 3 3 4 4 4 4 2 2 3 2 3 5 4 2 4 4 9 17 18 13 11 13 14 15 16 16 16 16 15 11 13 16 13 12 14 14 12 11 12 14 15 15 15 15 15 14 12 11 12 12 13 14 13
3 2 2 2 4 4 3 3 3 3 5 3 3 3 3 2 2 3 3 10 11 13 12 10 12 14 17 17 16 14 12 14 15 14 15 15 14 13 14 15 15 15 15 14 13 13 13 13 12 13 13 14 14 14

GFSWCAN_925_spd_003.txt.gz
Wind_Speed
28 28 28 26 24 24 23 23 21 19 17 16 15 14 13 13 15 12 8 16 11 4 15 19 19 15 10 7 4 8 7 2 3 3 3 2 3 2 4 8 10 8 8 5 5 6 8 19 9 5 7 9 15 19
27 28 28 26 25 22 22 21 19 18 18 15 14 12 10 11 11 9 6 9 13 6 8 21 26 25 24 22 6 4 6 7 3 3 2 3 2 1 1 7 5 6 6 7 5 5 14 11 6 6 13 15 14 20
28 28 26 25 23 20 19 17 16 17 17 11 11 10 10 8 10 10 10 7 6 4 11 13 15 25 26 35 33 7 5 5 3 1 2 2 4 2 2 2 6 3 13 7 5 4 7 7 8 10 8 10 9 13
28 26 26 26 22 19 17 15 14 15 10 10 10 9 9 9 10 10 9 10 5 4 4 5 4 11 5 12 27 35 11 3 2 1 2 3 3 0 1 3 1 3 3 12 6 9 5 6 5 7 10 11 15 16
28 26 25 24 17 13 12 12 12 9 8 8 9 7 9 7 6 7 12 15 12 3 4 8 24 8 8 18 22 27 23 13 4 1 2 2 3 2 1 2 3 5 2 6 7 5 3 5 5 11 14 12 12 16
25 25 23 15 8 10 9 9 8 7 6 8 6 6 4 5 4 3 2 2 14 8 3 4 5 5 6 6 12 13 10 7 3 3 4 3 1 3 2 3 5 7 3 10 1 12 16 9 10 10 16 14 14 17
22 20 16 13 10 10 9 8 7 5 5 4 2 5 2 3 4 2 1 3 11 4 2 5 5 3 4 4 4 4 9 4 4 2 2 2 4 3 3 3 11 8 6 9 6 13 14 12 9 11 13 13 12 16
20 16 13 12 12 13 11 7 6 4 5 5 6 7 7 7 8 4 3 9 15 5 3 3 5 4 2 3 3 4 5 3 2 2 2 1 3 3 4 8 9 9 13 16 15 15 14 12 13 12 9 7 11 12
16 13 11 13 12 11 10 8 7 5 6 7 9 10 4 1 1 2 5 4 14 4 4 2 3 3 3 1 1 3 3 3 2 1 3 2 2 4 3 6 11 11 8 10 11 13 13 12 8 8 8 10 12 9
16 14 11 11 11 12 11 9 9 8 10 10 5 2 1 2 10 8 6 3 3 4 3 3 3 4 3 2 2 2 1 3 2 3 4 3 4 6 8 6 6 9 9 5 7 10 7 5 6 7 7 7 8 8
16 14 11 11 12 10 11 13 14 13 7 5 4 2 7 10 2 1 1 2 2 3 4 4 4 4 2 2 2 1 2 2 3 3 2 3 3 4 3 4 4 4 7 6 5 6 7 7 6 7 7 8 7 7
16 16 14 12 10 9 8 14 18 14 11 9 9 7 5 3 1 2 2 2 3 3 1 3 3 3 3 2 2 1 2 1 4 2 3 3 2 5 5 4 6 7 8 9 9 8 8 9 7 6 5 5 6 6
17 16 14 12 11 10 12 16 19 19 13 2 1 2 2 1 3 3 5 2 3 3 3 5 3 2 2 2 2 2 4 4 1 4 3 3 4 4 4 5 9 9 8 8 7 8 10 10 12 11 8 9 10 9
17 15 15 14 14 15 17 19 23 15 3 2 4 3 3 3 3 2 4 5 4 5 7 5 3 3 3 2 2 4 3 2 4 3 2 3 6 4 5 5 5 7 7 7 8 10 11 11 11 11 11 10 9 9
12 12 14 18 22 26 24 20 15 6 3 3 3 4 3 4 4 6 6 4 3 5 4 1 1 2 3 3 5 5 3 5 4 3 1 4 4 2 4 5 5 7 8 8 8 8 9 10 10 10 11 9 9 8
11 8 18 27 30 28 17 11 6 4 2 2 3 3 6 2 7 6 7 9 7 6 2 1 3 3 4 3 4 6 3 4 2 3 3 3 2 3 5 6 6 7 8 7 9 8 6 6 7 7 8 8 8 8
8 8 24 28 30 20 13 6 4 2 3 4 3 4 6 3 4 5 6 8 7 3 3 3 5 3 3 3 3 4 3 4 4 4 3 3 4 5 4 4 6 6 6 7 7 6 5 6 6 4 4 6 7 7
8 22 23 27 26 13 7 8 3 3 5 2 4 8 5 3 5 5 7 8 6 4 3 3 1 5 4 4 3 3 4 3 3 4 4 5 4 4 5 5 6 6 7 7 6 6 5 5 4 6 6 6 6 6
22 20 22 22 19 5 4 4 4 3 2 3 4 5 3 4 3 6 6 8 3 2 1 3 5 4 4 3 3 4 4 5 4 3 2 3 6 6 6 6 6 7 8 8 9 8 7 5 5 6 6 5 5 6
19 14 22 15 13 4 3 3 4 2 4 4 3 6 4 3 6 7 7 8 4 3 6 4 4 2 2 2 2 2 2 2 3 3 3 3 6 7 9 8 7 7 8 9 10 12 10 9 10 10 9 8 8 8
12 15 14 12 6 8 2 3 2 2 4 3 4 5 4 4 4 7 6 7 5 3 4 3 3 2 3 4 4 3 3 1 2 2 2 3 8 8 9 9 10 11 11 9 9 11 13 11 11 11 10 9 10 8
5 15 6 6 5 5 2 4 3 4 3 4 4 5 3 4 5 5 6 4 3 3 3 3 3 4 4 3 4 3 5 5 3 2 1 1 2 3 4 5 7 8 10 10 11 10 10 10 12 12 11 11 10 9
9 5 4 4 2 5 3 5 4 5 5 7 4 4 3 4 5 5 3 3 2 2 2 3 5 4 3 5 6 5 6 6 6 5 1 3 4 6 6 5 6 7 7 11 11 11 11 11 11 12 11 12 12 11
4 4 4 4 4 2 3 2 1 2 2 2 3 3 3 3 5 3 2 3 3 4 2 4 7 3 1 7 6 7 8 6 6 6 2 6 4 3 3 3 4 7 9 10 12 13 12 11 11 12 12 12 10 9
3 5 3 4 2 3 4 5 3 2 2 3 3 2 3 3 4 4 3 3 2 3 5 7 6 5 6 7 8 12 13 12 10 6 4 2 1 1 1 1 1 4 8 11 12 14 11 10 11 13 12 10 10 10
3 0 2 1 1 1 2 3 3 3 2 2 2 2 2 2 2 4 3 4 3 3 4 3 4 6 7 10 7 10 12 13 12 10 8 6 3 4 3 3 4 6 11 11 12 13 11 11 11 13 12 12 11 12
3 3 0 1 2 2 3 3 2 2 1 1 0 1 2 3 6 4 3 5 3 8 7 8 10 13 9 12 12 12 12 13 9 6 5 7 7 8 8 7 8 11 13 13 12 9 10 10 11 12 13 14 14 13
2 2 3 3 2 2 3 3 2 1 0 2 1 1 3 4 4 5 4 8 10 10 13 17 18 15 13 10 11 12 12 14 11 7 4 7 9 11 13 11 11 14 10 11 9 9 9 9 10 10 10 10 11 11
2 2 2 3 3 3 3 2 2 1 1 1 2 3 3 4 7 5 8 12 13 18 19 17 17 15 14 10 10 14 14 15 14 11 11 7 9 12 17 14 13 12 12 9 13 13 13 12 12 12 11 11 11 11
2 2 3 3 2 1 2 1 3 2 2 4 6 9 10 11 18 16 16 22 21 16 13 12 13 14 13 13 13 11 12 14 13 11 8 8 10 10 11 12 12 12 13 13 13 13 14 13 12 12 12 12 12 14
3 2 2 2 3 2 3 4 5 7 8 10 10 8 6 3 10 22 21 17 12 12 12 11 11 12 13 14 14 13 11 14 14 12 11 10 10 11 12 13 13 13 13 14 14 15 16 15 13 13 13 13 13 13
2 2 3 3 2 4 3 1 2 5 5 7 6 4 3 2 1 2 10 10 9 10 9 9 11 12 13 12 10 9 8 10 12 13 13 12 11 11 12 12 13 14 14 14 14 13 14 13 12 13 13 14 14 14
2 2 2 2 2 2 4 1 3 3 4 2 2 1 1 0 0 3 6 12 10 10 9 8 7 9 12 11 10 8 10 10 12 13 14 14 14 14 14 14 14 14 13 13 13 13 13 14 14 14 14 14 14 15

GFSWCAN_925_spd_006.txt.gz
Wind_Speed
30 30 30 28 27 25 24 22 21 21 17 16 16 15 13 11 7 12 13 19 11 4 12 22 22 17 10 10 7 7 6 6 5 5 10 10 10 11 15 18 24 18 16 11 6 11 15 8 1 2 14 15 9 11
31 31 31 28 27 26 22 20 19 17 14 14 16 11 10 9 9 8 6 13 18 6 8 26 28 24 22 23 14 6 7 6 3 4 3 5 4 2 12 13 6 14 15 9 10 7 5 5 2 2 7 2 4 10
31 31 30 28 26 24 19 18 17 13 13 13 9 10 9 8 9 10 12 9 6 5 11 15 15 19 29 33 22 10 5 5 3 4 5 3 6 4 6 4 15 3 5 7 9 5 8 7 8 6 5 7 15 13
27 26 27 27 22 17 13 12 11 11 12 7 8 9 8 7 6 7 8 10 10 4 5 3 1 5 7 17 30 32 17 4 5 6 3 3 4 5 2 3 5 5 5 9 5 5 10 13 11 6 5 8 14 15
22 24 23 21 15 13 11 9 9 8 7 7 7 7 6 5 7 9 12 12 12 5 6 11 26 7 7 20 17 24 19 14 6 4 4 3 5 4 2 3 3 7 6 2 5 11 9 9 10 4 9 12 13 17
24 21 20 17 17 16 14 10 10 7 7 7 6 3 4 6 7 7 3 1 8 12 5 4 8 4 2 11 17 14 11 7 7 4 2 4 7 4 3 2 7 7 5 3 4 9 16 14 9 8 12 12 16 17
20 18 16 18 18 17 14 11 9 8 7 6 6 6 5 6 5 5 3 5 2 8 3 5 4 2 2 9 6 7 10 5 6 4 3 2 5 1 3 3 10 7 7 10 16 15 13 12 6 14 8 14 17 16
19 16 15 17 17 16 15 14 11 10 10 10 10 8 8 9 7 5 1 7 8 5 3 3 4 3 7 5 6 6 6 5 5 2 2 3 1 3 4 8 8 11 13 15 14 16 14 15 12 6 8 8 14 12
17 14 15 17 17 16 16 16 16 14 14 14 14 10 4 3 3 1 5 7 11 3 3 3 4 2 1 2 4 5 5 5 1 1 2 2 4 4 6 11 12 12 9 11 11 13 11 12 12 8 7 9 9 8
18 16 15 16 16 15 16 21 20 19 13 12 5 4 1 1 8 7 3 3 5 5 4 4 4 4 4 1 6 6 5 3 1 4 5 3 4 9 8 10 9 11 13 7 7 11 10 6 7 9 11 8 7 7
19 18 17 15 15 14 16 20 24 21 8 6 4 3 9 11 4 3 1 2 2 3 3 3 4 6 1 3 1 2 2 6 3 3 2 3 2 3 7 7 8 10 10 8 8 6 5 4 7 7 8 6 5 6
20 19 16 15 15 16 19 21 23 18 12 9 10 8 5 3 2 3 3 5 4 3 1 5 6 4 3 3 4 3 2 3 5 3 4 3 4 5 6 7 6 5 2 6 6 5 5 6 6 4 2 3 5 6
18 17 15 17 20 23 24 23 21 20 9 2 2 3 4 2 3 5 8 4 2 5 4 7 6 3 3 4 3 2 3 4 4 3 3 3 9 8 5 4 10 9 9 7 6 4 7 8 7 5 5 7 4 4
16 13 15 21 31 29 25 20 15 8 3 3 5 5 5 4 4 3 5 6 6 8 9 7 5 4 3 3 3 4 4 0 4 4 4 6 10 9 6 3 7 8 7 7 7 6 8 9 9 8 8 5 7 7
19 18 16 23 33 31 21 15 9 4 2 3 2 3 3 5 6 5 5 5 4 7 7 5 4 5 5 3 4 5 4 5 5 2 4 8 8 9 9 9 7 6 6 5 5 6 6 7 7 9 9 9 8 8
23 14 13 34 35 29 16 10 6 4 1 0 2 2 6 5 10 11 10 9 9 8 3 3 3 4 5 4 7 7 4 5 3 2 4 6 8 6 5 7 7 6 5 6 6 6 8 9 8 6 8 10 10 9
15 9 28 33 35 23 12 5 4 3 3 4 4 8 8 7 9 9 10 9 9 5 5 3 6 6 4 5 5 4 2 3 2 4 4 5 5 4 4 5 6 6 5 6 6 6 6 6 9 8 8 10 10 8
14 25 28 29 29 14 5 6 3 3 4 5 5 9 8 7 9 10 8 9 7 5 6 4 4 7 4 3 3 2 2 3 3 5 5 6 5 5 6 6 7 8 9 10 10 7 9 8 8 7 8 8 4 8
25 24 22 25 18 5 5 4 5 4 4 5 7 8 7 7 8 8 8 7 4 3 1 3 5 5 4 3 4 5 4 3 3 5 6 6 8 8 7 7 9 10 10 13 12 11 11 12 10 10 11 11 10 9
18 13 23 14 11 3 2 3 4 3 5 5 6 8 5 8 7 8 9 8 7 6 7 5 5 5 6 6 5 6 6 6 4 4 6 6 9 9 12 10 10 9 10 11 14 16 13 12 13 13 13 11 11 11
11 13 14 13 5 8 3 4 3 3 4 4 7 6 5 6 8 9 8 7 8 8 7 6 5 5 5 5 6 6 4 5 5 4 4 4 8 11 11 11 10 12 12 12 9 11 12 12 14 14 13 13 13 14
7 15 7 7 4 4 3 7 4 4 3 4 5 5 4 6 8 9 8 7 5 5 5 5 6 6 6 6 6 7 7 8 7 5 4 4 4 4 6 9 8 7 11 11 12 12 14 15 15 16 14 15 14 14
9 5 4 4 3 3 2 7 3 5 4 6 5 5 4 5 6 5 3 3 2 3 4 3 6 9 11 14 16 17 15 11 7 8 5 4 5 4 5 5 7 8 7 10 11 13 13 11 12 13 13 14 13 11
5 4 4 4 5 4 3 4 2 3 2 3 2 3 3 3 4 2 3 2 3 5 5 8 9 5 7 13 11 13 18 17 14 10 9 5 2 3 4 4 4 5 8 10 12 14 15 14 11 13 14 14 12 12
4 5 3 5 1 4 4 3 3 2 3 3 3 2 2 3 3 5 5 6 7 8 7 9 11 10 10 10 12 18 22 20 16 10 13 13 9 6 5 3 4 6 11 14 15 16 17 16 13 12 14 13 12 14
3 2 3 5 3 4 5 6 6 5 3 1 2 2 1 2 4 5 5 8 8 9 9 10 9 9 10 15 10 13 18 19 16 13 14 14 13 12 9 7 7 10 16 15 16 17 17 16 15 14 14 14 12 15
4 5 2 0 3 3 2 2 2 3 3 4 3 3 2 3 5 4 5 9 6 11 12 14 16 15 12 16 18 19 18 18 13 10 9 10 12 14 14 12 11 15 15 16 16 15 16 16 15 15 16 16 17 17
3 2 5 4 2 2 3 3 2 3 3 2 2 4 3 6 5 5 5 9 7 10 15 17 18 17 16 15 16 18 18 18 16 15 12 3 7 13 17 15 14 13 10 12 15 14 16 17 16 17 18 18 18 16
2 2 3 4 2 2 2 4 5 4 5 4 2 3 4 5 10 11 16 20 19 18 19 17 15 16 17 18 19 14 14 17 17 14 13 9 11 15 16 16 16 16 16 17 14 13 14 17 16 15 15 15 15 14
4 2 3 3 3 4 3 4 6 7 8 11 13 12 8 9 11 14 13 13 13 8 7 10 13 16 16 17 17 17 15 16 17 16 10 9 13 16 17 17 17 17 17 17 17 17 17 18 15 13 14 14 14 15
5 4 4 3 4 5 5 8 15 16 14 12 7 5 3 3 2 4 9 7 5 8 12 14 15 16 18 18 16 14 12 15 15 15 17 16 16 17 18 17 17 17 16 16 15 15 16 15 14 14 15 16 16 16
4 5 7 7 5 5 5 3 4 8 5 1 1 2 3 3 3 3 7 9 11 12 12 14 15 15 16 14 12 11 10 12 14 15 17 17 16 17 15 15 15 15 15 14 14 14 15 15 15 16 15 15 15 15
3 5 6 5 5 5 4 2 3 4 3 3 1 2 1 3 4 3 4 9 10 11 11 11 12 12 12 12 12 10 10 10 6 12 18 17 16 14 14 14 15 16 16 14 15 14 14 15 16 16 16 16 16 17

GFSWCAN_925_spd_009.txt.gz
Wind_Speed
31 32 32 31 31 29 26 23 20 20 18 17 15 14 15 13 11 11 10 14 14 3 9 19 24 21 18 13 10 9 6 4 3 7 10 13 15 19 20 22 25 23 21 19 19 22 24 5 8 12 6 11 13 13
30 29 27 28 30 28 23 20 15 17 16 13 14 13 9 8 9 9 10 11 15 6 10 24 29 28 26 21 15 13 8 2 3 5 2 5 4 8 17 16 25 24 21 17 13 14 9 8 9 2 7 9 8 8
25 25 26 25 25 21 16 14 13 13 12 13 11 8 9 10 9 14 11 11 6 3 10 16 18 26 30 35 30 11 10 4 4 8 4 4 6 3 8 12 21 8 23 19 12 12 10 12 9 4 5 4 2 5
23 24 23 21 21 20 18 15 13 12 11 9 8 9 9 9 8 8 9 7 6 4 5 11 7 4 6 14 27 26 19 5 4 6 6 4 5 6 3 6 3 5 13 8 16 16 16 14 10 9 9 9 11 16
21 20 18 20 21 20 18 14 13 12 9 9 8 9 7 6 7 10 13 15 16 4 6 12 23 21 20 20 15 23 19 12 7 4 3 3 3 2 7 3 4 3 5 5 9 17 18 14 11 9 10 13 12 15
19 18 19 20 20 19 17 16 14 13 11 10 9 8 7 8 11 9 2 1 7 13 5 5 10 3 3 13 11 12 10 7 3 2 4 4 7 6 4 3 8 5 12 5 12 20 21 18 19 19 14 12 12 13
19 17 19 20 20 19 18 18 16 14 12 12 11 10 10 10 10 5 5 7 10 2 3 5 4 4 6 11 8 7 9 4 3 2 5 2 4 6 3 3 9 10 10 11 16 18 15 14 10 16 17 13 12 12
20 18 18 20 18 16 17 19 20 19 18 16 15 15 14 14 12 8 3 5 5 3 3 3 6 4 13 9 7 7 7 6 7 5 2 3 5 2 2 7 10 10 15 18 18 17 16 13 15 14 16 18 10 11
20 19 18 17 16 16 19 21 25 26 20 15 15 13 8 6 3 1 3 5 8 3 2 2 3 3 7 2 2 8 7 7 4 1 1 3 1 1 7 8 10 13 9 13 16 18 19 17 15 13 15 13 15 9
21 20 19 18 18 19 22 25 28 27 12 10 6 4 3 2 5 4 5 3 4 5 4 4 4 3 8 6 6 6 3 2 1 4 1 3 2 8 10 11 11 12 11 8 13 17 17 14 10 7 5 6 9 14
21 21 18 18 21 27 29 28 27 23 10 6 3 3 13 12 5 2 2 3 3 4 4 3 6 6 5 3 3 4 3 0 1 3 1 3 2 5 9 11 9 10 9 9 10 10 9 6 5 2 6 1 6 0
21 20 19 21 25 35 34 27 22 14 10 8 10 10 7 3 2 4 4 4 4 2 2 3 4 4 1 3 5 6 4 1 3 2 3 2 3 4 9 9 8 7 8 8 9 8 3 7 9 7 10 7 3 5
21 23 24 24 27 38 34 22 18 13 6 4 3 3 4 2 3 5 7 2 4 6 5 4 4 3 1 7 5 1 3 3 5 4 3 3 4 2 6 5 8 8 8 6 3 5 7 7 8 7 5 5 7 4
25 28 24 19 29 39 31 19 14 7 3 3 4 4 4 4 4 4 9 8 7 6 5 5 4 4 4 3 3 6 6 3 2 3 3 5 5 2 3 7 8 4 6 8 10 5 6 9 8 9 9 10 8 8
29 25 11 23 36 36 24 14 8 6 5 3 3 4 4 5 10 11 10 7 8 9 7 1 4 7 6 5 6 6 5 4 6 4 4 5 7 2 4 3 5 9 7 6 8 8 8 8 9 11 11 10 9 10
27 12 16 35 36 32 18 9 3 3 2 2 4 2 5 7 11 11 12 12 11 10 5 2 5 4 7 5 7 8 4 5 3 1 6 6 7 7 3 1 5 8 9 8 6 11 10 8 6 11 9 10 11 10
19 12 30 33 35 23 12 6 4 2 5 3 3 9 9 9 9 12 11 11 12 9 9 5 7 6 3 4 4 4 3 0 4 4 4 4 4 5 4 4 5 8 7 7 7 7 5 7 10 9 7 6 6 7
14 23 27 27 28 15 5 6 4 3 5 7 8 9 9 8 10 10 10 9 8 8 8 6 6 10 5 4 3 3 1 0 5 4 3 5 6 5 4 6 9 9 10 11 6 9 9 10 7 5 4 5 3 6
22 21 19 24 14 5 4 4 5 4 5 7 8 7 7 7 8 8 8 7 8 7 7 6 7 5 5 4 6 8 7 5 6 6 6 8 10 8 8 9 11 13 13 12 14 12 12 11 11 14 14 14 13 12
13 11 19 11 6 4 3 3 3 3 5 5 7 7 7 8 8 9 10 10 9 9 9 6 8 7 7 8 7 8 8 7 6 6 5 6 10 12 12 10 8 8 10 8 12 16 11 11 13 14 13 13 12 13
8 11 11 11 4 7 4 4 3 3 4 4 6 4 7 10 12 11 11 10 10 12 10 8 9 8 11 12 14 12 9 9 8 7 6 6 10 10 10 9 8 10 10 10 8 10 11 12 14 15 13 13 13 13
8 13 5 5 4 4 3 6 4 5 3 3 8 8 6 7 8 9 7 8 4 4 5 6 7 8 10 12 11 14 12 12 10 7 7 6 1 4 4 7 8 6 8 10 10 10 11 13 13 15 13 13 13 12
9 5 4 4 3 3 2 4 2 3 4 4 4 4 2 4 4 6 3 5 4 5 7 4 6 10 9 17 20 22 23 16 7 8 6 4 5 6 5 6 7 7 8 10 10 11 12 12 12 13 12 14 13 13
6 5 4 4 4 3 3 4 2 2 3 2 3 3 3 3 0 2 6 4 3 2 4 10 15 8 11 15 11 15 21 20 17 15 16 16 10 8 5 5 7 8 10 13 16 16 16 17 17 14 13 14 14 15
4 4 3 3 1 3 2 3 2 2 3 2 2 2 3 1 3 4 5 5 8 10 10 12 11 8 9 10 12 18 21 20 16 10 17 17 17 16 16 17 21 17 17 17 17 18 18 17 17 16 15 14 14 15
3 2 3 6 4 5 5 5 4 5 3 3 3 2 1 1 5 5 3 7 7 8 9 10 10 10 10 16 11 14 20 20 16 12 13 14 14 15 11 9 9 16 21 19 19 19 19 20 20 19 19 18 15 16
4 5 1 1 3 3 3 2 1 2 3 4 3 3 4 4 5 3 2 7 7 15 18 20 20 17 12 14 14 14 16 18 17 17 14 7 9 14 17 16 15 18 18 16 18 18 17 19 20 20 19 20 20 20
4 5 7 6 3 2 4 6 5 6 7 5 3 4 4 5 4 6 6 15 20 22 19 14 12 15 15 16 18 19 15 18 18 17 15 10 16 17 16 16 16 15 16 12 16 17 16 18 19 18 16 16 16 17
2 5 4 7 5 3 5 6 7 7 9 8 3 5 3 3 6 10 9 8 6 5 6 8 9 14 18 18 16 17 17 18 19 16 15 10 13 17 18 17 18 17 17 17 14 10 14 17 14 13 14 15 16 16
8 4 2 5 9 5 5 7 9 9 9 9 6 7 4 2 4 2 3 3 4 6 13 16 17 18 18 17 16 17 16 17 19 18 12 11 17 19 18 18 17 17 16 16 15 15 16 17 14 15 17 18 18 18
4 7 6 5 6 5 8 10 10 10 8 8 7 6 4 4 5 1 6 8 12 15 15 16 16 17 17 16 15 14 13 15 15 16 18 17 16 16 15 16 16 16 16 15 15 15 16 17 17 17 16 16 16 16
3 3 4 3 4 6 10 4 2 4 3 4 5 3 4 2 2 2 13 15 15 15 13 14 15 14 15 15 14 11 11 10 13 15 18 16 14 14 15 15 15 16 16 15 14 15 16 17 17 17 17 17 18 18
2 7 6 6 3 2 5 5 4 3 2 4 4 1 3 4 4 4 6 9 10 13 14 14 11 11 10 12 13 13 12 10 7 12 19 16 12 12 13 15 16 18 18 18 18 18 18 18 18 17 17 16 17 16

GFSWCAN_925_spd_012.txt.gz
Wind_Speed
28 27 28 27 27 28 27 21 18 17 16 16 15 14 14 14 13 11 11 10 10 5 11 18 24 21 15 13 10 6 7 6 8 8 6 6 7 10 14 13 15 10 10 12 11 9 8 21 11 19 3 2 3 6
25 25 26 25 24 25 24 21 18 16 15 15 13 13 10 9 9 9 12 12 12 7 9 28 27 32 30 23 13 10 7 10 5 3 2 3 8 8 13 10 15 13 15 11 11 9 6 8 8 7 5 4 7 8
23 23 21 22 24 24 22 20 18 17 16 14 11 10 11 11 11 11 15 13 5 3 10 14 17 29 34 35 31 13 11 7 5 2 4 3 6 4 3 7 12 16 17 12 13 11 2 8 8 5 7 10 9 18
21 20 21 21 23 23 22 20 18 17 14 13 13 11 12 11 10 10 9 11 5 3 5 11 13 16 20 18 31 27 20 15 9 5 3 3 4 3 4 6 8 6 13 12 13 13 12 11 12 5 11 18 17 20
20 19 20 22 22 21 20 20 18 17 16 14 13 12 11 10 11 11 14 15 14 4 4 11 26 31 29 19 14 20 17 14 7 6 2 3 2 2 2 3 3 4 5 5 5 15 11 10 10 13 18 18 19 18
20 21 21 21 21 19 19 20 21 19 18 17 15 14 13 13 13 12 2 3 8 14 3 6 16 19 9 24 13 13 10 9 6 3 1 2 5 2 3 1 5 6 8 3 5 14 14 14 21 16 18 19 19 18
21 22 21 20 20 19 20 23 22 24 24 22 19 18 17 15 13 7 5 8 15 8 3 5 7 6 13 10 9 8 11 8 3 2 3 2 3 2 1 2 7 8 7 8 9 14 16 21 15 15 20 19 19 18
22 22 22 21 20 22 25 27 29 30 28 23 19 17 17 17 16 11 8 3 5 3 2 4 5 3 11 10 7 7 6 3 3 2 2 4 2 3 2 4 7 7 8 9 11 13 13 12 12 17 22 20 18 17
22 23 21 19 20 24 31 31 31 30 25 16 15 16 7 5 4 2 2 3 4 4 2 2 3 5 7 3 4 5 5 5 6 4 0 2 3 2 3 3 9 8 4 11 13 14 16 17 18 19 18 18 18 18
21 22 23 23 25 28 33 35 34 28 17 13 10 5 3 1 3 4 2 1 3 4 3 4 7 3 3 5 4 4 5 4 3 2 1 3 4 6 8 7 9 7 7 9 15 12 11 11 13 13 12 11 12 11
22 24 26 28 29 30 34 33 29 23 11 4 3 2 14 12 3 3 3 3 2 3 4 5 7 4 6 6 2 4 2 1 2 1 2 3 2 5 8 9 8 8 9 9 10 13 14 12 11 8 8 7 6 6
24 26 31 30 25 26 34 32 23 15 10 7 10 11 7 3 1 2 4 3 4 3 3 4 6 7 2 1 4 2 2 1 3 0 3 2 3 5 4 7 7 5 5 5 5 4 6 7 10 7 6 4 2 8
27 30 33 23 25 35 33 24 16 10 9 5 3 3 5 1 4 5 6 3 2 3 3 6 2 1 3 3 1 1 3 4 4 3 3 1 4 5 3 11 6 5 7 9 9 10 8 10 9 9 8 10 4 9
30 32 28 19 29 38 29 15 9 6 3 3 5 5 4 4 3 4 11 11 8 3 8 5 4 5 2 3 2 5 4 2 4 4 3 1 2 2 3 7 8 2 4 9 8 10 10 18 7 9 8 12 9 8
31 32 18 19 36 34 18 11 5 4 3 3 3 3 4 6 8 10 12 9 1 4 8 6 2 9 7 4 4 3 3 5 6 4 2 2 5 6 7 5 7 9 9 10 12 11 12 13 11 8 17 13 8 10
31 23 10 31 34 27 13 10 6 2 1 2 2 6 9 11 14 14 13 10 14 5 3 6 8 5 8 5 7 7 4 4 2 2 2 0 6 10 11 13 8 7 7 7 7 7 11 10 8 10 10 8 9 7
25 5 29 32 32 16 12 6 4 1 4 5 8 10 10 10 9 11 12 14 10 11 11 5 7 9 4 5 4 3 3 3 4 4 3 4 3 3 7 6 13 6 6 5 7 14 9 10 6 8 5 12 8 7
10 22 26 23 26 15 2 4 6 4 7 7 8 9 10 9 12 13 10 10 10 10 10 10 6 8 6 5 2 1 2 2 0 3 2 3 4 5 2 5 9 12 12 16 6 13 16 15 9 7 13 15 7 13
22 21 19 21 13 6 3 5 5 5 6 9 9 8 8 10 9 10 10 9 10 9 10 6 7 7 7 6 8 8 6 5 4 4 5 8 9 8 10 9 10 10 12 13 16 12 13 15 16 18 16 16 12 12
10 11 19 7 7 6 3 2 4 4 5 6 6 7 8 11 12 12 11 13 11 12 11 8 9 10 9 9 8 7 6 6 6 5 4 4 11 12 10 7 5 7 11 11 15 17 14 15 16 15 13 12 15 14
9 11 7 9 0 9 6 5 4 4 4 5 8 8 8 9 10 13 12 11 11 6 10 8 9 8 12 13 16 15 8 8 6 5 5 7 10 10 11 11 11 10 10 12 9 11 14 14 16 16 14 15 12 13
8 12 5 4 3 4 1 5 4 4 3 5 7 6 6 9 9 8 7 9 5 5 5 5 5 9 10 13 15 20 16 7 3 9 3 2 3 4 6 9 9 7 12 12 11 11 13 15 14 15 14 14 15 13
11 4 5 3 3 2 3 2 3 2 1 3 3 3 4 4 4 3 4 5 3 3 4 3 5 16 13 16 22 25 26 22 11 15 16 14 7 11 10 10 12 9 6 13 16 16 16 17 17 17 13 12 12 12
6 5 4 5 3 3 2 2 2 0 3 3 2 1 2 2 2 3 7 5 5 8 11 12 15 10 12 17 11 15 22 22 18 16 17 16 11 14 18 13 18 21 21 18 18 17 17 17 16 17 15 15 14 12
4 4 1 4 4 2 0 4 5 4 4 3 1 1 2 3 3 3 4 7 8 9 11 16 15 9 10 10 12 17 19 20 17 10 14 14 14 15 16 19 19 20 20 18 18 19 19 19 20 21 20 20 20 17
0 3 1 6 3 3 5 4 4 5 3 4 7 4 3 3 5 4 4 7 7 10 10 11 10 9 9 15 11 12 16 20 20 17 19 16 16 14 12 10 10 18 20 17 17 18 18 17 19 20 19 19 21 19
3 4 2 2 5 1 4 4 3 5 5 4 7 5 2 5 5 3 5 12 7 11 14 18 14 14 13 17 18 18 19 20 20 19 18 14 18 17 17 16 15 17 17 15 16 17 17 18 19 17 17 15 15 15
7 7 16 6 6 8 4 5 8 7 8 7 4 6 3 4 1 2 3 9 13 14 10 7 8 13 18 19 18 18 18 19 20 20 19 15 19 19 17 17 16 14 14 10 14 13 15 17 14 14 13 14 16 17
3 12 6 3 7 6 7 7 10 7 9 8 5 4 3 2 1 3 4 6 7 9 13 16 16 18 18 18 17 18 18 19 20 16 16 11 14 19 19 16 16 15 15 15 8 7 13 13 12 11 15 16 16 16
7 6 5 3 7 6 9 6 8 8 10 10 6 5 3 4 3 3 8 10 12 13 17 17 16 17 16 17 15 16 15 15 16 16 11 11 15 16 16 17 16 16 15 14 13 13 13 15 14 15 15 15 16 16
4 4 3 4 4 7 4 9 10 9 7 8 6 5 5 3 3 4 13 15 16 17 16 15 14 14 14 15 15 13 13 13 15 16 17 14 13 13 15 15 15 15 14 15 14 15 17 17 17 16 16 16 16 16
2 5 6 2 6 5 5 4 4 2 4 4 5 4 3 3 1 1 6 13 12 14 14 16 14 12 12 13 13 12 10 11 12 14 16 13 12 12 14 16 16 18 17 17 16 17 16 16 15 15 15 16 16 17
4 5 4 4 2 5 7 5 2 2 3 4 1 2 1 5 5 4 5 12 12 13 15 16 14 12 11 12 14 13 8 8 7 12 15 14 11 10 12 13 15 17 18 16 14 13 13 13 14 15 16 16 16 18

GFSWCAN_925_spd_015.txt.gz
Wind_Speed
25 24 23 22 25 26 27 25 23 21 20 19 18 16 16 13 12 10 10 8 10 4 10 15 20 17 12 11 9 4 5 3 4 6 4 4 4 4 6 7 9 5 4 1 1 4 4 6 6 5 5 3 4 4
23 22 22 23 25 26 25 25 22 20 21 18 16 15 12 13 13 11 12 11 10 6 6 24 32 34 30 26 14 3 4 2 3 4 3 1 4 2 3 4 3 3 4 5 5 2 2 3 7 4 7 3 4 6
23 22 22 24 25 26 25 25 23 22 21 19 17 15 14 14 14 12 16 15 10 3 7 10 12 28 36 38 41 11 8 10 5 4 3 2 6 3 3 2 5 3 9 4 9 11 7 6 4 7 18 15 13 12
22 23 23 24 25 24 23 23 24 24 22 21 19 18 16 15 14 13 15 15 6 3 4 8 18 24 30 26 32 40 24 12 1 1 3 3 2 4 1 3 2 4 8 6 5 13 20 10 11 3 21 15 10 12
23 24 24 24 24 24 23 25 26 25 26 25 23 21 18 17 17 17 19 21 13 3 3 9 30 22 20 27 24 28 20 14 4 6 4 2 3 2 3 2 2 1 2 2 3 6 5 7 12 10 15 14 9 15
23 25 25 25 25 25 26 28 31 31 31 30 27 24 20 17 15 14 2 3 2 7 3 4 10 11 23 18 16 19 9 4 5 3 1 2 3 3 2 2 2 6 5 5 4 3 9 11 21 16 14 11 11 14
24 25 26 26 26 27 28 33 37 37 34 31 27 23 19 16 12 5 4 4 9 11 2 4 5 4 17 11 3 4 6 4 2 2 1 2 3 3 2 2 7 7 4 6 4 5 11 19 8 18 19 18 17 18
23 25 27 29 31 33 35 38 40 41 36 30 25 22 18 16 14 11 12 14 9 5 1 3 4 4 9 5 1 3 3 3 2 1 1 1 4 2 2 4 4 7 6 4 11 12 7 5 15 15 15 16 19 18
23 25 28 32 35 37 36 37 39 38 33 28 21 22 8 3 3 2 2 5 5 4 2 2 3 3 4 2 0 4 3 2 2 1 2 2 1 2 6 8 0 6 7 7 10 10 5 7 10 8 10 14 14 13
24 27 30 34 38 34 34 41 39 34 27 17 10 5 2 4 7 5 2 1 1 1 2 3 3 3 3 3 2 4 1 3 2 3 2 3 2 5 9 5 4 8 10 8 3 5 4 7 9 11 8 7 8 8
27 29 31 35 37 31 35 42 35 30 12 7 4 2 10 6 2 1 2 2 2 3 3 4 4 5 3 2 2 2 2 2 2 0 2 3 4 7 9 6 7 8 8 4 4 5 4 5 6 4 4 5 5 5
30 32 34 35 34 30 38 38 30 17 11 9 12 13 6 2 2 3 2 1 2 3 3 3 3 3 1 2 2 3 2 4 2 1 3 3 4 9 10 5 3 2 1 2 3 1 4 7 6 4 2 1 4 5
33 34 35 36 29 28 39 35 23 19 18 3 3 3 3 2 3 4 4 1 3 3 4 4 1 2 3 3 2 2 1 4 1 4 3 2 3 7 7 4 3 6 6 5 3 6 4 7 5 4 3 6 8 10
33 35 35 30 23 36 36 28 19 17 5 3 4 8 5 5 3 6 8 6 6 7 8 9 2 2 2 1 1 3 3 3 4 4 4 2 6 1 3 5 5 5 5 10 14 11 8 10 10 13 12 7 11 11
32 34 27 15 34 36 29 17 15 8 4 3 4 3 4 6 10 13 8 4 5 6 6 1 2 1 2 3 6 6 5 5 6 3 2 5 7 9 7 4 2 8 8 11 14 6 7 7 6 8 11 12 12 11
30 26 5 31 32 28 15 17 8 3 2 2 3 8 10 11 12 12 11 12 14 12 4 6 6 5 8 4 6 7 4 5 3 2 4 4 8 9 10 8 7 6 12 11 8 7 10 10 7 9 7 9 9 12
24 5 24 26 29 16 13 6 4 3 2 5 6 9 6 5 9 10 10 11 10 12 10 5 7 8 3 5 5 5 3 3 3 3 3 6 6 4 5 7 7 9 7 7 9 17 15 22 19 13 7 12 20 10
7 20 20 20 25 14 6 2 4 4 6 2 4 9 11 11 10 11 10 12 9 9 6 6 4 7 4 3 2 1 0 2 3 5 5 4 5 4 3 5 8 10 7 13 11 18 19 18 13 8 18 23 21 23
23 18 16 16 14 7 4 3 2 3 6 5 6 8 9 10 11 11 12 12 14 9 7 5 6 6 6 5 9 8 6 2 1 3 3 3 6 5 8 8 10 11 15 16 16 13 15 20 18 17 17 18 13 16
6 9 17 8 8 4 3 3 5 3 4 4 4 8 9 9 9 11 12 12 9 8 10 7 7 7 8 8 8 6 4 4 3 5 4 4 5 4 2 5 6 11 12 16 18 19 20 19 22 22 19 21 16 11
7 10 9 7 2 3 3 3 3 2 2 3 2 5 3 7 10 11 11 8 9 6 7 6 7 7 10 13 18 15 10 7 4 4 4 4 7 3 2 6 14 16 12 11 9 14 16 13 19 20 16 19 20 19
6 10 5 4 2 1 1 2 3 3 1 1 3 3 4 5 6 6 5 7 4 3 3 5 7 7 9 12 15 23 24 19 19 18 22 14 7 10 11 19 15 9 14 14 15 14 16 17 22 23 16 15 17 20
10 4 4 3 2 2 5 1 2 2 1 1 1 2 2 3 3 1 3 4 4 6 11 7 9 16 11 15 23 26 28 22 9 13 15 15 16 19 22 24 25 21 15 21 22 20 20 25 26 25 25 24 21 18
4 3 3 3 1 3 2 3 3 3 3 1 1 2 3 2 1 3 5 4 3 10 11 13 17 9 11 12 6 10 18 22 20 15 19 12 10 15 23 22 25 26 22 21 23 22 21 22 25 25 24 22 23 21
3 4 1 4 4 3 4 2 4 4 4 2 5 4 4 2 2 3 3 5 6 7 8 13 12 8 4 7 11 16 23 22 18 9 19 18 15 15 16 19 23 23 21 18 18 19 19 21 22 23 21 18 18 19
3 1 5 10 10 7 3 4 4 3 3 5 4 3 3 1 3 3 2 5 5 7 7 8 6 6 7 14 8 11 18 22 22 19 16 21 21 18 14 10 10 17 20 18 18 17 19 19 17 16 16 17 18 18
7 9 3 3 3 3 4 4 6 6 6 6 4 4 3 4 4 3 3 6 6 11 13 13 13 12 11 14 15 19 22 25 24 22 18 24 23 23 20 15 12 14 14 15 14 15 15 14 13 13 14 17 20 20
4 9 6 3 3 4 3 6 7 7 7 7 3 6 3 3 2 3 2 10 11 13 14 11 16 18 18 17 19 18 20 21 21 22 21 20 22 21 18 17 17 17 12 10 10 10 12 12 13 14 16 16 16 17
3 4 5 5 4 2 4 7 7 5 6 5 3 3 2 2 1 5 7 11 14 7 13 14 15 18 18 16 18 17 17 17 17 15 16 9 12 16 19 18 17 17 16 15 5 8 15 12 10 13 15 16 17 17
6 6 5 6 7 4 6 5 6 7 7 7 5 5 4 4 2 4 10 14 14 14 16 16 13 14 14 15 14 15 19 17 16 13 8 7 12 14 16 16 16 16 15 18 16 15 17 16 17 16 15 14 14 14
2 3 5 3 4 7 8 9 10 8 7 6 5 4 4 2 2 2 7 12 12 15 15 15 14 14 13 13 12 11 9 14 14 15 13 10 10 11 15 16 17 18 17 18 15 16 15 13 12 12 13 14 14 15
2 4 6 2 4 6 5 7 6 5 4 3 3 3 3 1 1 1 7 10 11 12 14 15 14 14 13 12 13 10 11 9 10 11 11 10 10 10 12 15 15 16 16 14 11 11 9 11 12 13 14 14 15 15
3 2 3 2 6 5 5 3 1 2 3 2 2 5 4 2 4 3 10 12 12 11 11 12 12 13 12 12 11 8 7 6 6 8 8 10 9 8 7 9 11 15 15 12 16 14 15 14 14 14 14 14 14 15

GFSWCAN_925_spd_018.txt.gz
Wind_Speed
22 22 23 23 25 26 25 24 24 23 22 21 20 19 17 15 13 11 12 10 10 3 9 13 14 14 9 5 8 5 4 1 2 3 4 3 4 5 4 5 8 4 2 3 3 6 6 20 11 9 5 5 4 4
22 23 24 24 24 25 24 23 24 26 25 23 22 20 18 16 14 12 8 7 10 4 6 25 28 30 25 23 6 4 4 3 2 3 2 4 4 4 6 4 8 6 4 4 4 1 11 11 5 6 5 6 5 6
22 24 25 25 25 25 25 25 26 27 27 26 24 22 20 19 17 13 17 17 12 3 8 7 10 25 26 32 37 6 3 7 5 5 2 4 5 4 4 3 5 5 2 3 1 3 11 18 15 9 12 13 11 13
22 24 25 25 26 26 26 26 26 29 31 28 26 24 22 21 19 17 17 20 12 2 4 7 10 18 23 22 20 39 22 6 4 4 2 4 4 5 3 1 2 3 0 3 1 3 8 17 16 12 14 11 13 14
24 24 25 26 27 29 30 32 34 36 35 32 28 24 22 21 19 19 25 25 18 5 3 7 21 13 10 8 17 30 26 15 6 1 3 4 3 5 3 3 2 2 3 2 3 5 3 6 10 13 17 16 15 13
24 25 26 28 30 32 35 37 36 37 36 35 30 25 22 17 14 8 3 6 9 13 3 4 5 6 21 18 9 13 13 9 4 3 4 3 2 3 3 2 1 9 1 4 6 4 4 10 12 16 16 16 15 14
25 26 29 31 33 36 40 39 35 39 42 37 30 23 18 13 9 5 5 2 13 5 2 4 4 5 11 6 3 3 4 3 4 3 3 3 3 2 3 1 7 10 10 10 9 3 6 14 7 12 17 17 17 15
26 28 31 34 36 39 41 39 39 43 42 36 29 21 16 13 11 11 19 14 24 5 3 3 4 4 5 3 4 4 3 3 1 1 1 2 4 2 2 12 9 6 7 12 11 8 2 3 11 12 16 16 16 14
29 31 34 36 38 40 42 38 42 45 41 30 22 15 2 5 4 5 5 3 12 4 2 2 2 3 2 3 1 4 4 3 3 2 2 1 3 3 7 8 4 9 6 8 10 8 10 13 11 10 14 15 14 13
32 33 35 37 39 40 40 38 43 40 31 20 9 2 2 2 6 2 1 0 1 1 2 3 2 3 3 2 2 4 3 3 2 2 1 3 2 7 8 7 6 8 9 6 11 8 7 7 7 7 8 4 5 6
33 34 35 37 38 39 33 39 38 34 11 10 5 2 10 3 1 1 2 2 2 3 4 3 5 4 3 2 1 1 1 2 2 2 2 4 6 9 13 10 8 9 10 10 7 5 2 5 5 5 4 7 6 4
34 34 35 36 37 31 31 36 33 24 17 13 15 12 7 3 2 3 3 2 3 4 2 3 3 2 1 2 1 3 2 1 4 2 3 4 5 13 14 9 8 6 7 5 3 5 5 7 3 4 5 4 4 5
33 34 34 34 29 29 35 34 29 21 21 3 1 3 3 3 5 5 4 3 3 3 4 5 1 1 2 2 2 2 2 5 2 4 2 1 7 8 7 6 7 9 4 3 1 5 5 5 6 5 3 8 8 8
31 32 32 29 23 34 35 32 21 17 4 3 4 8 4 5 4 5 11 7 7 4 5 3 0 1 1 2 2 4 4 4 4 4 3 2 2 5 7 8 11 10 16 11 9 11 11 9 8 14 14 11 13 8
29 31 26 13 31 33 28 21 20 7 2 3 4 6 4 6 7 12 9 11 10 6 2 2 2 3 4 5 5 5 5 5 6 5 4 7 8 6 9 6 8 10 9 8 6 7 8 9 7 9 15 14 18 18
28 21 5 22 29 23 17 19 6 4 3 4 4 5 6 6 10 12 13 12 12 11 2 4 4 5 9 4 6 7 4 5 3 4 5 6 9 10 9 7 8 8 12 12 16 18 20 18 13 15 25 23 22 24
20 6 21 25 28 15 12 7 2 1 3 5 4 4 4 3 7 10 12 10 8 12 10 4 6 6 2 4 5 5 5 5 5 3 3 3 5 8 7 11 7 8 10 17 20 22 21 24 27 24 14 20 24 24
7 21 17 21 25 15 9 5 4 4 5 4 4 6 4 4 9 11 12 13 8 8 6 5 4 8 5 5 4 3 3 5 4 3 3 3 5 6 8 6 7 14 16 18 20 22 25 23 14 9 19 21 24 26
19 16 16 20 17 7 4 5 4 3 3 2 3 4 4 3 7 11 10 11 13 9 5 4 7 6 6 4 5 5 3 2 1 4 4 6 8 8 10 15 18 18 17 15 18 15 19 25 19 22 23 22 18 19
9 10 17 14 8 4 4 5 7 4 3 2 3 4 4 4 4 8 10 10 6 5 9 6 6 2 3 4 3 3 3 4 3 4 4 6 15 12 8 10 10 16 19 20 22 24 22 21 25 26 25 25 21 18
5 12 9 8 3 2 0 1 3 2 0 2 2 2 3 3 8 9 9 5 9 8 5 3 2 2 4 10 18 17 10 9 4 4 3 7 15 22 20 22 24 24 18 15 15 19 25 21 24 28 28 22 22 25
6 11 6 3 2 4 1 3 3 2 3 2 1 2 2 3 4 4 3 8 7 5 4 4 4 3 8 9 11 20 23 23 23 20 20 19 10 10 15 19 20 16 20 19 19 18 20 24 28 28 28 25 18 20
6 5 3 2 1 3 5 1 1 2 3 2 5 4 3 3 3 3 4 4 3 4 8 7 13 18 8 20 26 25 28 25 17 18 13 17 18 18 20 22 20 16 14 19 20 21 20 26 28 28 25 25 24 18
3 2 2 2 2 4 2 2 2 2 3 5 2 2 2 1 1 3 2 3 3 8 7 11 14 6 10 12 7 14 19 22 20 23 20 15 14 15 19 20 22 22 19 20 21 21 24 25 24 24 21 21 21 19
3 3 3 5 2 4 4 5 4 3 2 4 4 2 2 2 3 2 2 3 4 4 5 15 12 6 4 4 10 17 25 22 17 9 20 21 18 17 18 21 24 21 21 21 20 20 20 20 21 21 22 23 20 19
4 3 4 3 3 3 4 4 3 4 3 3 3 3 2 2 3 3 2 3 3 3 5 4 3 3 5 12 6 12 17 22 27 17 19 21 21 16 9 5 9 16 18 16 15 16 17 17 20 18 19 21 22 18
3 3 3 0 2 2 3 3 3 3 5 5 2 2 3 3 3 3 3 4 3 10 17 15 16 14 10 16 18 18 21 24 22 15 19 21 24 24 21 17 13 12 14 12 10 13 13 13 16 18 19 21 22 20
3 4 3 1 2 2 2 3 4 5 4 4 3 5 2 2 3 3 4 10 17 9 10 17 16 17 17 17 16 17 18 19 21 16 14 17 19 21 20 19 18 17 19 17 8 12 11 14 17 18 17 16 16 15
3 3 2 3 2 3 1 2 1 1 2 1 3 2 3 2 2 3 7 5 11 12 12 11 13 16 20 21 19 17 16 18 17 7 7 4 8 18 20 19 21 22 23 20 11 18 15 15 14 13 12 13 14 15
3 5 3 5 3 2 2 4 4 2 2 3 4 2 2 1 8 7 2 8 13 13 15 13 13 14 13 16 17 15 14 15 15 10 3 3 8 16 18 18 20 20 20 17 12 12 11 12 13 13 13 14 15 14
4 5 3 3 2 3 4 7 10 7 4 4 4 4 5 3 4 3 10 15 15 15 16 13 14 13 14 12 10 14 8 9 11 12 9 9 9 11 15 14 15 16 17 17 8 12 11 13 15 16 16 16 16 15
3 3 3 3 2 3 4 4 5 5 5 3 2 3 1 2 2 1 5 12 14 14 12 14 13 12 11 10 7 5 7 9 8 8 8 8 8 7 9 12 12 17 17 19 17 16 15 14 14 14 12 12 13 15
1 1 2 4 2 4 4 4 5 3 2 3 3 4 4 4 2 3 6 6 12 12 12 13 13 12 11 10 9 4 4 3 5 4 5 6 6 7 5 6 10 13 14 13 14 15 14 13 12 12 12 12 13 15

GFSWCAN_925_spd_021.txt.gz
Wind_Speed
19 21 23 23 23 24 24 23 22 22 23 23 21 20 18 16 14 11 12 14 9 4 10 14 11 11 10 6 6 4 5 2 2 2 4 4 4 5 5 6 5 12 10 8 6 7 9 16 12 7 12 14 3 8
22 23 23 24 24 25 25 25 25 26 25 26 25 22 20 18 15 12 10 10 10 5 7 21 24 29 27 25 8 5 6 2 2 2 1 3 3 3 3 4 7 8 7 10 8 8 4 2 6 12 12 5 7 4
24 25 25 26 26 28 29 30 31 31 31 30 26 25 22 20 18 14 16 15 8 3 9 8 10 25 25 32 32 6 4 6 5 4 2 3 5 4 3 8 12 7 11 8 6 4 4 10 13 12 11 7 11 9
25 26 28 28 29 30 32 33 35 35 32 30 28 25 24 20 19 17 17 17 8 3 4 6 7 12 18 20 28 38 19 6 3 4 4 3 3 4 4 8 10 7 12 14 5 2 4 8 8 11 8 7 13 14
26 27 28 30 31 34 35 37 39 36 32 33 32 25 23 21 17 17 21 24 23 6 3 6 24 8 5 22 26 31 24 12 4 3 4 4 3 4 4 6 8 5 11 10 7 6 5 6 10 13 5 8 10 11
27 29 31 34 35 37 38 40 41 38 37 37 31 25 19 15 11 5 3 4 11 17 3 4 5 5 8 12 19 10 13 8 5 4 4 4 6 4 3 4 4 5 7 7 6 5 17 13 6 12 2 8 12 14
29 31 33 37 39 40 40 41 42 38 42 38 31 25 16 11 10 5 4 4 12 13 1 4 4 4 7 4 1 2 11 4 4 3 4 6 5 5 3 3 8 15 13 8 11 15 11 11 4 6 4 8 9 14
32 34 36 37 40 41 42 42 38 42 43 37 25 19 10 8 10 12 22 19 19 3 1 3 4 4 8 3 3 2 2 2 3 3 2 3 4 3 5 8 13 8 16 8 8 11 14 8 2 7 6 6 12 12
33 35 37 38 40 41 41 41 37 42 43 30 22 6 5 5 4 5 4 2 19 4 2 2 2 2 4 2 2 4 3 3 3 2 2 3 3 3 11 13 9 6 8 12 9 12 14 14 12 8 9 13 13 10
33 34 36 38 40 40 39 36 42 41 36 18 6 3 2 1 9 1 2 2 3 2 2 3 2 3 2 2 2 0 2 2 2 3 1 2 3 10 11 11 10 12 10 5 14 13 16 7 7 9 6 5 7 6
33 34 34 35 38 39 32 38 37 39 14 9 5 2 8 3 3 0 2 3 2 2 2 3 5 4 3 3 1 2 1 1 2 2 1 4 6 7 14 12 11 12 12 11 10 12 3 5 8 7 8 8 7 9
32 32 32 32 33 32 33 36 37 26 13 14 15 11 5 2 2 3 2 1 2 3 3 3 3 3 2 2 1 1 1 1 2 2 3 4 6 12 13 11 11 7 7 7 8 9 10 13 10 8 6 6 4 4
30 31 31 31 26 26 35 38 33 22 13 3 1 3 3 3 5 5 5 3 3 2 3 3 3 1 1 2 1 1 3 4 2 4 3 3 10 12 14 14 10 8 9 7 7 7 4 3 4 4 4 6 9 12
29 30 29 18 21 32 36 30 26 12 4 3 5 8 5 5 5 4 10 7 8 4 4 1 0 2 2 2 3 4 3 4 4 4 5 6 11 12 10 9 10 13 12 13 11 11 11 10 11 16 17 18 19 12
28 26 11 22 29 31 23 24 16 11 5 4 4 6 5 6 7 10 8 7 11 2 2 2 2 3 4 4 4 4 5 5 6 4 4 6 9 9 12 12 12 13 14 15 16 18 18 16 15 18 25 23 24 23
27 9 18 26 29 22 19 16 12 7 4 4 7 6 8 8 13 16 12 12 13 9 2 3 4 5 7 4 7 7 4 5 4 4 4 6 9 12 10 10 10 13 14 15 16 19 21 18 14 17 23 23 23 25
11 8 18 25 24 15 15 10 6 5 4 5 4 4 3 3 7 8 10 9 10 10 6 4 7 6 3 5 6 5 3 4 5 5 5 9 7 7 6 9 10 13 13 18 20 20 19 23 27 23 13 19 23 24
4 16 17 21 21 10 10 11 4 5 6 3 4 6 4 2 7 8 8 11 7 6 5 5 5 7 5 5 4 5 3 3 2 4 6 7 7 7 10 8 14 17 18 19 21 22 24 23 15 9 17 18 23 23
15 15 16 18 12 5 4 6 6 4 2 1 3 4 4 4 7 9 9 13 15 9 4 4 6 4 4 4 4 7 7 6 3 4 8 14 16 14 16 20 22 22 23 22 21 17 20 22 18 18 18 18 17 18
8 8 15 11 10 5 4 4 3 4 2 2 3 4 3 3 5 7 8 9 5 4 8 5 4 3 2 3 2 3 4 5 3 8 7 9 15 21 20 18 17 19 21 24 27 27 23 23 23 22 23 22 20 17
6 7 8 8 4 5 3 1 3 1 2 2 1 2 2 4 5 6 7 6 5 5 5 3 3 4 6 8 14 14 14 13 5 3 4 7 13 17 18 20 21 22 19 17 14 17 22 16 18 22 23 23 22 22
7 11 6 4 3 5 2 0 4 1 3 3 3 2 2 3 3 3 3 5 4 3 3 2 3 3 6 8 11 22 18 21 22 18 18 14 8 7 11 14 13 12 16 15 16 14 16 20 21 21 20 23 26 26
6 5 4 4 2 4 3 1 3 3 1 2 3 2 3 3 3 3 3 3 2 3 5 4 3 11 12 16 23 24 22 19 13 14 15 15 17 19 17 18 18 15 12 15 18 20 21 22 20 19 21 23 22 21
4 3 3 3 2 3 3 2 2 3 2 2 2 1 2 2 2 3 2 3 3 9 8 10 7 5 10 14 6 11 16 16 17 18 14 13 11 15 18 18 19 17 16 17 19 21 23 22 23 24 22 22 20 19
3 5 4 5 2 4 4 6 4 2 2 2 2 1 2 2 2 2 1 3 4 4 4 6 10 6 3 1 7 16 15 16 13 8 16 11 12 13 13 14 15 11 10 14 14 17 18 19 22 22 19 20 20 20
4 2 3 2 2 2 2 3 3 3 1 2 2 1 1 3 3 2 2 2 2 2 3 1 4 3 3 5 3 8 9 12 17 17 16 15 12 11 6 4 6 14 12 9 11 13 14 15 18 19 18 16 14 13
2 0 1 1 1 0 2 2 1 3 4 5 2 2 2 2 1 3 3 4 2 1 5 5 11 13 10 11 13 13 13 10 10 11 13 17 18 17 16 13 11 13 12 8 9 9 11 12 12 12 13 13 10 9
2 3 2 1 1 2 1 2 2 1 1 1 2 2 3 5 4 3 4 9 3 10 11 10 9 13 14 12 10 10 11 10 7 2 6 13 18 18 18 18 19 18 14 14 15 15 13 11 10 10 11 12 11 10
2 3 3 1 2 2 2 3 2 3 3 2 4 3 3 3 3 4 1 2 7 12 14 14 13 15 13 11 10 9 10 10 8 5 5 3 8 15 16 16 16 17 10 12 11 10 8 8 7 8 10 11 10 10
4 4 3 3 2 3 3 5 4 3 3 4 4 1 2 2 4 5 2 10 9 9 10 10 15 14 12 9 7 6 7 8 9 6 3 0 2 10 13 14 16 16 11 4 8 8 9 11 10 11 12 11 11 12
4 3 2 3 4 4 5 4 5 3 1 2 2 3 4 3 0 3 12 12 12 15 14 10 8 8 11 11 9 7 2 3 6 7 7 6 5 8 11 12 16 15 16 12 11 12 12 11 10 9 10 10 11 12
4 6 4 4 3 1 3 3 4 4 4 3 3 2 1 1 2 2 12 12 11 10 11 10 11 7 3 2 5 8 4 6 5 4 4 4 6 7 8 10 11 13 13 12 11 11 10 10 10 10 10 10 12 15
1 2 2 3 2 3 3 4 4 3 3 4 4 5 4 5 4 5 5 10 7 11 13 9 9 8 4 1 1 3 6 5 4 1 2 5 8 8 4 4 8 11 11 10 10 10 10 10 11 12 11 13 14 15

GFSWCAN_925_spd_024.txt.gz
Wind_Speed
22 23 25 26 26 26 27 29 29 29 29 29 27 26 25 22 18 12 10 13 9 3 10 13 14 11 10 5 4 2 4 1 1 3 3 3 4 4 4 6 5 7 8 6 8 6 15 1 0 2 5 11 17 14
25 26 27 27 28 28 30 31 32 33 32 31 28 27 26 25 22 16 11 13 15 5 6 23 28 31 30 27 8 5 4 2 3 2 3 2 3 2 4 5 6 8 8 4 9 7 7 5 5 4 5 10 12 12
27 27 27 28 31 31 33 34 35 35 35 33 30 28 27 26 22 18 19 16 9 3 8 7 9 20 23 33 32 6 4 7 5 4 2 3 6 2 3 4 4 6 7 8 8 11 10 3 4 3 4 9 12 7
27 28 28 29 33 34 36 38 38 38 38 35 31 29 27 24 20 18 18 14 10 2 4 6 8 11 13 17 29 37 18 3 2 3 4 4 3 5 3 5 7 9 9 9 10 26 7 4 2 3 6 7 8 8
28 30 32 33 36 38 39 40 41 40 38 35 33 29 26 21 17 16 19 21 23 7 3 7 21 5 5 17 21 23 23 11 3 2 4 4 3 4 4 6 11 8 14 8 8 10 6 3 4 3 9 3 6 5
32 34 35 36 37 39 41 40 41 40 36 42 36 31 23 14 8 4 3 3 15 22 2 3 4 4 6 10 16 12 10 7 5 3 3 4 4 5 4 5 10 7 8 8 6 10 5 6 4 2 8 3 4 4
33 36 37 37 38 38 42 41 41 37 41 42 38 30 16 9 10 4 3 2 11 20 2 4 4 2 7 3 2 3 12 3 4 3 4 5 5 6 3 11 18 14 11 10 13 12 5 7 5 5 9 8 5 4
34 37 38 38 39 38 40 40 39 38 43 42 27 18 8 8 8 11 20 10 16 4 0 3 4 4 3 3 1 3 4 3 4 3 3 3 3 3 5 13 17 20 18 14 15 12 5 11 8 10 14 9 9 11
35 37 38 38 38 37 37 37 35 42 44 27 14 3 5 4 3 2 2 9 15 3 1 2 2 3 3 2 2 1 3 3 2 2 3 3 2 4 14 21 14 16 9 12 14 8 9 13 15 14 19 12 4 5
34 34 35 36 36 35 34 31 39 42 33 11 3 2 2 3 3 11 3 2 1 1 2 2 2 3 3 2 0 2 1 2 2 3 2 2 3 15 13 14 15 19 12 16 18 9 10 14 16 19 11 3 4 3
32 32 32 33 35 34 28 32 38 36 9 6 5 2 7 4 2 1 1 1 2 2 2 3 4 3 3 2 2 2 2 2 2 2 4 4 5 11 14 15 16 15 16 14 10 9 11 11 11 10 4 4 6 9
29 29 30 31 28 24 30 35 34 20 9 10 10 7 4 2 1 2 2 2 2 2 3 3 3 4 3 2 2 2 2 1 4 5 4 5 8 16 20 19 20 16 12 11 10 12 13 12 8 8 6 8 9 13
26 27 27 20 23 27 29 30 24 15 5 2 1 1 3 4 6 5 7 3 5 2 2 2 3 1 1 1 2 2 5 5 3 4 5 4 13 16 19 19 23 23 23 21 22 19 13 13 18 15 12 17 21 19
27 27 13 21 27 28 24 24 21 12 4 4 5 7 6 6 6 4 7 6 6 4 4 2 2 2 3 4 3 5 4 3 5 5 8 10 15 14 14 14 18 19 20 19 17 17 16 17 16 22 23 19 20 17
26 14 17 26 31 23 20 21 21 12 6 5 5 7 5 4 5 6 6 5 7 3 0 1 2 3 3 4 4 4 5 6 5 5 8 6 11 10 11 12 13 15 16 15 12 13 14 17 15 17 26 24 24 25
18 9 20 29 24 18 20 14 13 9 5 4 6 5 8 7 12 13 12 11 10 8 1 3 4 4 6 4 5 7 4 6 5 6 5 5 8 10 11 12 12 12 12 11 15 18 22 20 15 17 29 26 26 26
9 9 23 25 21 16 21 11 7 6 5 5 4 2 3 3 4 6 8 9 10 9 4 4 6 7 3 5 7 6 6 6 6 6 5 7 8 7 7 11 12 16 16 19 21 22 18 18 25 26 16 22 25 27
4 18 19 21 17 9 10 13 5 4 5 3 3 5 4 2 7 8 8 10 7 4 4 4 4 8 6 7 5 5 4 5 6 6 7 7 8 11 15 11 18 19 18 19 19 20 22 20 16 12 16 17 22 23
16 14 16 16 10 4 4 5 5 3 2 1 3 4 3 3 5 7 9 13 12 7 3 4 6 3 2 2 4 6 5 4 3 4 5 14 16 15 15 18 21 22 22 21 20 16 17 21 17 16 14 17 16 16
5 7 14 10 9 3 3 3 3 4 1 2 1 3 2 1 4 5 9 8 5 4 7 4 3 2 2 3 2 3 3 4 2 5 8 8 13 16 16 14 13 14 17 19 21 23 19 19 22 20 18 17 18 17
4 7 5 9 4 5 3 1 3 2 2 2 2 2 2 3 4 5 5 5 4 3 3 3 2 3 7 5 8 4 9 9 4 3 1 4 8 10 13 13 14 16 15 13 12 13 16 13 12 16 19 19 20 21
5 8 4 4 4 4 3 2 3 1 2 1 2 2 2 2 3 3 3 4 3 2 2 2 3 3 4 5 7 13 10 15 17 17 16 11 4 5 7 11 12 10 12 13 13 10 12 12 12 19 21 19 23 25
6 5 3 4 2 4 1 2 3 2 2 2 3 2 2 2 1 2 3 2 2 2 1 1 1 2 4 9 13 15 14 11 11 12 11 10 12 12 13 12 12 12 10 15 14 14 16 17 20 23 23 24 24 23
4 3 3 3 2 2 2 2 2 2 2 2 1 2 2 2 2 3 2 2 3 5 3 3 1 2 5 8 5 7 11 7 9 13 12 9 8 11 11 11 12 12 12 14 16 19 21 21 21 20 19 19 18 17
3 5 4 4 2 4 4 3 2 1 1 1 2 1 1 2 2 2 1 3 3 3 3 2 3 3 2 2 3 5 9 8 7 5 12 9 7 6 8 10 12 10 9 11 11 13 14 15 14 14 13 13 12 11
4 2 2 1 2 2 1 2 3 2 1 2 0 1 2 2 2 1 2 2 2 2 3 3 4 2 1 1 1 3 5 5 5 8 10 11 10 8 6 4 5 9 8 5 4 7 9 10 11 11 10 7 7 8
2 1 0 0 2 1 1 1 1 1 2 1 0 1 2 1 2 3 3 3 3 5 7 5 6 6 7 5 4 5 6 6 4 7 9 13 14 13 12 10 8 10 7 2 1 6 9 8 7 6 6 5 6 7
2 3 2 1 0 1 1 1 1 2 2 2 2 2 3 4 4 3 4 2 4 4 3 2 4 7 9 7 4 5 7 9 7 1 2 8 12 14 14 14 13 8 10 10 9 8 6 5 6 7 8 8 7 7
2 2 3 1 2 2 3 5 4 3 3 3 4 3 3 3 3 4 5 6 7 9 7 6 7 8 8 7 5 4 6 9 9 5 3 2 7 11 14 14 11 8 4 6 5 4 4 6 7 6 6 7 7 8
3 4 2 2 3 4 4 5 3 3 3 3 3 1 1 3 3 5 6 9 12 12 12 9 10 11 8 7 4 2 1 4 4 2 1 2 3 8 11 13 14 10 4 4 4 8 8 8 7 7 8 9 10 11
4 3 1 3 4 3 3 3 4 3 2 2 1 2 3 2 2 4 7 11 9 9 10 8 8 10 9 8 8 6 5 4 1 1 2 3 4 6 8 9 11 10 10 8 7 7 6 7 7 7 7 7 9 10
4 6 4 3 3 2 1 2 3 3 3 2 2 2 0 0 2 3 6 11 10 10 8 7 8 6 4 5 8 9 7 4 4 1 2 4 6 7 5 6 9 8 7 7 7 6 6 7 7 7 7 8 9 11
1 2 2 2 0 1 2 3 3 2 1 2 3 5 4 4 4 2 5 12 9 8 10 9 5 2 1 4 7 5 4 7 5 4 5 7 10 11 7 2 4 7 6 6 7 7 6 6 7 8 9 10 10 11

GFSWCAN_925_spd_027.txt.gz
Wind_Speed
22 23 25 27 28 28 28 30 31 33 33 32 30 26 25 24 23 18 10 15 12 3 9 13 16 13 11 6 6 3 6 3 2 4 3 4 4 4 5 9 6 9 7 7 11 12 21 9 15 18 5 6 11 13
23 24 25 27 29 30 31 33 34 35 35 34 31 28 27 25 24 18 9 15 19 6 6 19 26 28 28 27 11 5 7 2 2 2 1 2 4 3 5 5 9 11 14 8 10 10 12 11 14 16 12 13 12 14
25 26 28 31 33 34 34 35 36 37 36 36 32 29 28 26 23 17 12 12 9 2 7 11 10 15 19 29 30 6 4 6 6 4 3 3 7 3 5 9 12 9 12 12 17 23 23 24 24 20 15 16 14 12
28 30 31 34 36 36 36 37 37 37 37 35 31 29 25 22 19 13 12 14 11 1 3 6 7 12 11 13 22 31 21 5 5 4 3 4 3 7 5 10 11 11 6 9 17 20 20 24 25 19 20 14 10 8
31 33 34 35 37 37 37 37 38 37 36 34 33 29 25 18 14 9 11 14 17 6 2 6 26 6 6 12 19 23 25 17 8 3 4 4 4 5 6 7 14 14 19 12 12 14 14 19 17 17 17 14 6 6
34 35 36 36 37 38 38 37 37 36 34 35 33 30 20 10 7 2 1 1 9 14 1 3 5 5 6 6 12 14 13 7 4 3 4 5 10 4 4 6 15 15 17 20 20 19 22 19 19 12 16 10 6 8
35 36 37 37 37 36 37 36 35 33 34 38 33 25 9 9 10 3 3 2 10 13 1 3 4 3 6 3 3 4 12 4 4 3 4 5 5 6 4 15 33 15 17 20 15 16 22 18 13 8 9 6 5 6
36 37 37 36 34 33 35 35 34 30 39 35 22 8 7 11 5 3 9 7 14 2 0 3 4 4 2 2 2 5 5 4 5 3 3 3 3 3 6 19 23 22 19 20 19 21 18 14 8 8 8 8 11 10
37 37 35 33 31 31 33 32 28 35 33 20 5 8 5 3 2 3 2 11 7 1 1 1 3 4 4 3 2 2 3 3 3 3 3 3 2 4 16 24 24 9 13 13 18 17 16 16 9 9 11 9 13 15
34 32 30 30 31 30 27 30 33 33 15 4 2 1 2 4 3 10 3 1 1 0 1 2 2 3 3 2 1 1 1 2 2 2 3 2 3 15 20 18 15 9 8 12 13 6 5 5 9 15 13 10 14 16
30 28 28 28 26 28 31 34 30 25 4 3 3 2 3 2 6 1 1 1 1 2 2 3 3 3 2 2 3 1 3 3 3 3 6 4 10 19 23 25 26 20 19 18 15 5 12 10 12 17 13 11 13 17
26 28 26 21 26 31 34 30 21 12 4 3 1 1 1 1 0 3 3 0 1 2 2 3 2 3 3 3 2 1 3 2 5 7 5 5 12 23 23 26 27 24 25 25 23 21 18 17 14 14 11 9 12 16
26 24 17 23 30 32 27 22 16 9 6 5 2 3 4 5 7 6 8 4 5 5 2 4 3 2 2 1 2 2 6 4 4 5 4 7 14 17 17 18 23 25 25 25 24 24 19 20 28 21 16 20 22 22
23 17 18 25 33 26 22 24 23 9 5 4 4 6 5 5 5 3 8 6 5 5 9 5 3 3 2 3 4 6 5 4 5 5 7 8 14 15 15 14 15 18 19 20 21 22 22 23 20 27 23 22 21 20
18 13 19 29 25 21 20 21 20 15 5 4 5 5 5 5 5 5 6 6 7 6 3 2 2 2 4 4 4 5 5 5 5 4 4 9 12 12 14 15 15 17 16 15 14 15 16 20 18 20 24 24 24 27
15 8 19 24 21 19 15 14 14 9 5 4 7 5 8 5 11 12 11 11 10 6 1 3 5 5 7 4 6 8 4 5 4 5 7 8 10 12 13 14 14 15 16 16 19 21 22 20 16 16 24 25 25 25
6 8 19 21 16 16 22 10 6 5 4 5 4 3 4 4 6 10 10 11 13 7 4 4 7 6 4 6 8 6 5 4 5 6 6 10 10 11 11 11 16 18 18 20 20 21 22 22 25 26 19 24 27 27
3 14 15 18 16 8 8 8 4 5 5 3 3 6 4 5 9 9 9 10 7 5 4 5 4 8 5 6 4 4 3 3 2 4 6 7 9 14 16 14 17 17 18 19 18 20 21 20 18 14 17 15 20 20
12 11 15 15 11 4 4 5 5 3 3 0 0 2 5 4 8 12 10 14 12 6 3 3 6 5 4 3 5 8 7 4 4 4 6 12 14 14 15 17 20 21 21 20 19 16 16 18 16 15 14 17 18 19
5 6 11 10 9 3 3 2 2 3 2 1 1 2 2 5 5 9 10 9 8 4 7 4 4 2 3 4 3 4 5 5 3 4 6 7 11 12 15 14 13 13 15 16 16 19 15 14 17 17 17 18 18 16
3 6 5 7 4 5 3 1 2 2 2 1 1 2 1 1 4 8 8 6 6 4 4 2 2 2 4 3 6 6 9 9 5 4 4 5 9 10 13 13 14 15 15 14 12 12 13 10 10 12 14 17 16 16
4 7 3 3 3 2 3 3 2 2 0 1 1 2 2 2 2 3 3 5 3 2 1 1 2 3 3 4 7 8 7 7 8 7 9 8 6 7 10 12 13 12 13 12 12 12 11 10 10 12 14 15 17 17
5 4 2 4 1 3 1 1 0 2 1 2 1 1 1 1 2 2 2 1 1 1 2 1 1 2 3 3 3 7 10 9 7 7 6 5 5 5 6 8 9 10 10 11 11 10 10 10 12 12 12 12 12 13
4 3 3 3 2 1 0 1 1 1 1 1 1 1 1 2 2 2 1 2 1 2 1 2 3 2 1 1 4 6 9 8 7 6 7 7 5 5 5 5 5 6 5 4 7 8 8 8 8 10 10 11 11 11
2 5 3 4 1 1 2 1 1 0 1 0 1 1 1 1 1 1 1 1 3 3 2 1 1 1 1 1 1 3 5 7 8 7 8 7 7 4 4 5 6 5 5 4 3 4 4 5 6 6 7 8 8 8
3 2 2 0 1 1 1 1 2 1 1 1 1 1 1 0 1 2 1 1 1 2 3 3 3 2 1 0 1 2 4 6 6 6 6 7 7 6 6 6 7 5 9 6 4 1 3 3 4 5 6 5 4 6
2 1 1 0 0 1 0 1 1 2 2 2 2 2 1 1 1 1 1 4 2 1 1 1 1 3 1 4 3 3 4 4 2 2 3 5 7 7 8 8 9 11 11 7 4 0 1 3 4 6 6 4 5 7
0 3 2 3 2 2 1 1 2 2 2 2 2 3 2 3 3 3 4 5 5 3 2 2 2 3 4 5 3 3 4 6 3 3 2 1 4 7 8 8 7 7 5 5 4 2 2 2 3 3 4 4 5 6
2 2 3 2 2 3 3 4 3 3 4 4 3 3 3 3 1 3 4 6 5 5 5 4 3 4 4 4 3 3 4 6 8 7 6 4 5 9 11 11 11 8 3 3 3 2 1 1 2 3 3 4 5 5
2 4 2 2 3 4 3 6 2 2 3 2 1 1 1 2 3 5 6 7 7 7 5 4 5 5 3 3 2 2 1 2 3 5 5 5 6 6 8 9 11 11 7 4 1 2 2 2 2 3 4 4 5 5
4 4 3 4 3 1 2 2 2 2 2 3 2 2 1 1 2 5 7 10 7 5 6 6 5 4 3 2 3 3 2 4 2 1 1 3 4 5 5 6 8 8 6 4 3 3 4 4 5 5 4 5 6 7
4 5 3 3 2 1 2 2 2 2 2 2 2 3 2 1 2 2 2 6 7 7 5 5 4 3 3 1 2 3 3 2 4 2 2 3 4 6 6 3 4 6 5 5 5 5 5 5 5 5 6 7 7 7
2 3 3 2 2 2 3 3 2 2 2 2 2 2 3 3 2 1 0 6 2 2 4 6 6 6 5 4 6 5 4 2 5 4 5 8 10 8 7 3 2 2 3 4 5 5 5 5 5 6 8 8 8 9

GFSWCAN_925_spd_030.txt.gz
Wind_Speed
24 25 26 27 27 28 30 31 31 32 32 31 28 27 27 25 23 16 13 21 14 3 9 13 16 12 10 8 8 4 7 5 3 3 4 5 7 6 10 13 11 10 12 13 15 18 23 11 11 13 11 12 13 13
25 27 29 31 32 31 32 32 33 33 33 31 30 28 25 26 23 16 10 17 25 6 6 18 24 25 24 24 11 4 6 6 3 3 3 3 4 3 8 10 10 15 13 12 12 13 12 11 13 13 13 17 16 17
28 30 31 32 33 33 33 33 34 34 33 30 30 27 26 24 21 13 8 15 12 2 6 12 7 7 13 21 23 8 6 9 7 8 4 3 6 8 8 10 15 18 16 14 19 23 24 19 17 21 17 20 19 21
31 32 33 34 34 34 34 34 34 33 31 30 28 27 26 23 17 10 7 15 8 3 3 4 3 8 16 13 17 22 20 5 8 3 4 3 5 7 8 13 14 13 13 18 20 23 22 22 23 23 21 21 24 24
32 34 34 34 35 35 34 33 32 31 31 30 29 27 25 17 10 5 5 8 15 4 3 6 24 8 5 5 16 19 21 15 7 2 4 4 4 7 12 15 19 16 24 18 18 18 16 19 19 24 23 20 22 19
34 35 35 35 34 33 32 31 30 31 30 29 28 25 15 6 1 2 3 3 11 13 2 3 5 5 4 3 9 14 14 8 4 3 3 4 10 5 4 10 24 23 25 25 23 23 22 19 17 21 23 19 23 20
35 36 35 34 31 31 30 29 29 26 27 27 21 11 4 7 5 1 2 1 6 8 1 3 4 2 4 7 3 4 8 3 3 2 4 3 4 5 4 15 34 24 24 26 25 20 21 21 17 19 21 21 19 17
36 36 33 31 29 27 25 24 27 27 25 17 7 9 8 10 4 2 4 0 10 2 0 3 4 3 3 3 2 3 3 2 3 2 3 3 2 3 5 17 24 28 26 27 25 21 22 20 18 18 17 18 15 13
35 31 29 27 25 22 23 27 28 25 17 3 11 8 4 3 2 3 5 8 4 2 2 1 3 3 4 3 1 3 2 2 3 3 2 2 2 3 17 26 16 15 3 17 20 20 21 23 21 22 14 16 10 10
30 27 26 23 21 23 28 28 23 20 4 10 5 4 2 3 10 7 2 1 0 1 1 2 1 3 2 2 2 1 2 1 2 3 2 1 3 15 25 25 23 14 9 10 15 19 19 18 18 18 10 10 11 10
25 25 20 20 24 29 27 22 20 6 7 2 1 3 4 4 2 1 2 3 2 2 2 2 3 4 2 2 3 1 1 1 3 6 7 7 9 23 30 27 23 20 18 21 6 8 4 2 2 6 7 14 11 7
22 19 18 23 27 32 24 18 15 5 2 3 6 4 3 2 2 4 5 1 1 3 2 3 3 3 3 3 2 1 3 3 6 8 6 7 14 21 22 26 28 28 28 25 24 23 23 27 22 20 21 21 16 17
19 17 18 24 32 26 20 21 16 7 9 3 1 3 4 6 6 6 6 4 6 6 4 8 7 3 1 3 2 5 7 5 3 5 4 10 17 17 19 18 22 23 25 24 25 24 24 23 29 22 20 27 26 26
17 15 16 24 30 21 21 24 24 8 3 4 4 6 5 5 3 3 9 8 8 9 12 7 5 4 3 3 4 5 4 5 6 6 7 11 18 20 17 16 17 19 20 22 21 21 22 21 19 29 30 28 25 22
15 11 17 25 23 20 17 22 21 10 5 4 5 6 6 5 4 6 7 7 7 8 8 5 2 6 6 4 5 5 5 5 6 5 8 11 16 16 17 16 18 18 16 17 20 20 19 21 19 22 27 28 29 27
13 5 14 21 16 16 11 12 13 8 4 4 6 6 8 8 11 11 10 10 9 6 3 4 5 5 8 4 7 7 4 5 5 6 9 11 15 15 15 16 17 18 18 19 21 22 23 23 21 21 26 27 26 26
5 4 16 18 14 9 15 5 6 5 5 5 5 8 6 7 10 11 11 11 11 9 4 4 6 5 4 5 5 3 4 4 7 7 7 10 11 12 14 15 20 22 22 23 22 23 22 22 22 23 17 22 26 26
2 11 14 16 14 5 5 6 4 4 5 4 6 8 8 8 10 10 10 11 7 7 8 5 4 10 4 5 5 6 6 6 4 5 5 7 8 13 15 15 18 20 21 23 21 20 21 20 17 15 18 17 19 18
13 10 12 13 10 4 3 4 4 3 3 2 2 5 7 8 9 11 10 12 11 8 3 4 5 5 7 6 7 8 8 7 6 4 4 8 12 14 14 16 17 18 18 17 19 16 15 18 18 16 15 16 17 18
6 5 10 9 7 2 2 3 1 2 0 3 1 3 4 6 7 8 9 10 9 7 6 5 7 6 6 7 7 6 7 7 6 4 3 5 10 9 13 15 15 15 15 16 13 17 12 12 14 16 16 16 15 16
4 5 5 5 2 4 2 0 2 3 1 2 2 3 2 2 5 7 7 7 8 9 7 6 6 6 6 7 9 10 10 12 7 6 7 6 8 8 11 13 15 15 15 14 12 11 12 11 11 12 12 13 13 12
3 7 3 3 1 1 2 3 3 2 2 2 2 3 2 4 4 4 4 5 5 4 4 4 4 5 3 5 8 9 9 10 7 8 7 7 6 8 9 12 13 12 13 13 13 12 12 13 11 11 10 9 9 12
5 4 1 1 1 2 1 1 2 0 2 2 1 1 1 2 3 2 2 2 3 3 3 3 2 2 4 3 4 7 11 11 9 9 9 10 5 6 9 8 9 11 10 11 10 9 9 8 10 10 10 11 11 11
5 2 2 2 1 1 2 1 1 1 2 1 2 2 1 3 0 1 2 2 3 1 2 2 3 4 3 5 3 6 9 12 12 10 10 11 10 8 7 8 8 7 7 6 7 7 7 8 8 10 11 11 11 11
1 4 1 3 1 2 1 1 1 2 2 1 2 1 1 1 2 0 2 2 1 3 3 2 2 3 5 5 3 4 5 11 12 10 9 11 10 10 8 8 7 6 9 10 7 6 6 7 8 9 9 11 11 8
2 1 1 1 0 2 1 2 2 2 3 2 1 0 1 2 2 1 1 1 0 1 3 4 5 6 3 4 5 5 7 9 11 9 8 8 9 10 9 8 8 8 12 9 8 8 6 8 9 10 9 5 4 9
1 2 2 1 2 2 2 2 2 3 3 2 2 2 2 3 2 2 3 3 2 1 1 1 3 5 5 3 1 1 4 6 7 7 4 5 6 8 9 10 10 11 10 8 6 6 8 9 9 8 8 7 7 9
1 3 3 3 3 3 3 2 2 3 3 1 2 3 2 2 2 3 2 5 5 5 5 5 3 2 2 3 1 1 2 2 2 2 3 2 2 6 9 8 7 8 6 6 9 10 8 7 7 8 9 9 9 9
3 3 3 5 4 4 3 3 3 3 2 4 4 4 3 1 1 2 5 6 4 4 5 6 5 5 3 2 1 1 3 5 5 5 5 4 5 8 9 9 9 7 5 5 2 5 6 8 10 11 10 8 8 8
3 4 3 3 3 3 2 3 4 2 2 4 3 1 2 2 2 3 5 7 9 7 4 3 5 4 0 3 2 0 1 2 4 6 5 5 6 7 7 8 9 8 7 5 5 2 2 6 5 7 7 7 7 6
1 3 3 4 4 3 3 2 3 3 3 4 3 5 4 1 2 2 3 1 1 3 5 5 4 1 1 3 5 6 4 4 2 1 4 4 5 7 8 7 7 7 7 6 6 6 8 7 7 7 6 7 7 8
3 4 3 4 4 1 2 3 2 3 2 3 3 2 1 2 1 3 2 1 2 3 2 1 1 5 4 4 5 5 2 2 2 1 2 5 8 9 9 7 5 6 7 7 7 6 6 6 5 6 7 8 9 9
3 4 4 4 3 3 2 3 2 3 3 2 1 0 1 3 4 3 3 3 3 2 3 4 6 6 6 5 6 5 2 1 2 1 3 4 4 5 7 7 4 5 5 5 5 6 5 5 5 6 7 7 8 8

GFSWCAN_925_spd_033.txt.gz
Wind_Speed
25 26 28 29 31 31 32 33 33 32 31 30 28 27 25 22 19 19 12 20 15 3 8 17 20 14 10 9 7 7 9 7 7 3 5 4 8 3 11 14 11 11 15 14 15 18 21 12 6 6 8 8 13 14
27 28 30 31 32 33 33 34 33 32 31 31 29 27 24 21 19 16 8 15 22 6 5 16 21 25 25 21 9 3 11 13 3 3 3 5 7 4 11 11 15 14 13 10 15 12 8 9 11 14 4 5 9 10
28 29 31 32 33 34 34 33 31 31 31 31 28 26 23 21 18 12 8 11 9 2 6 12 9 10 15 17 14 5 5 7 9 11 6 3 5 10 9 10 15 14 14 15 18 18 18 17 17 14 13 11 15 14
29 31 33 33 34 35 33 31 30 33 31 28 27 25 23 18 13 8 7 11 6 2 3 5 6 6 7 12 14 20 17 12 8 6 3 4 5 9 9 15 15 13 18 18 21 23 21 19 21 20 21 22 20 19
31 33 35 34 34 32 30 29 30 30 28 25 25 23 18 10 3 2 4 7 15 2 3 6 20 4 2 5 9 13 14 10 5 2 4 3 4 5 10 15 17 17 21 16 17 18 18 20 19 21 21 23 24 22
34 35 35 33 30 28 27 27 27 26 25 24 22 17 7 2 5 4 1 3 6 5 2 3 7 2 3 3 2 5 8 3 3 3 2 4 5 3 4 6 22 20 23 25 22 25 26 22 21 21 20 20 20 20
35 36 32 28 24 25 24 24 23 25 22 18 14 7 11 12 3 2 4 4 3 3 1 4 5 1 2 2 3 1 2 1 0 0 3 3 3 5 3 14 29 24 24 28 30 26 26 22 18 18 22 17 15 21
35 31 27 26 24 21 22 24 24 21 15 9 7 12 12 11 5 3 6 4 6 1 1 2 4 5 5 2 1 1 1 2 2 2 2 3 2 2 4 17 29 26 20 21 29 29 27 22 17 18 17 17 21 22
30 26 24 22 20 22 25 25 20 16 8 8 11 5 2 2 1 2 5 6 3 3 1 1 3 4 4 2 1 2 2 1 1 2 2 1 3 2 14 23 21 22 15 14 1 19 20 20 21 20 18 19 21 22
25 21 20 19 21 25 26 18 16 5 7 12 5 6 3 3 3 3 2 1 1 1 2 1 1 3 1 2 2 1 2 1 2 3 3 2 3 15 23 24 24 20 13 10 11 10 12 14 17 19 21 18 16 22
21 18 18 20 23 26 18 15 6 9 7 4 4 3 5 4 2 3 3 4 4 3 2 2 4 3 2 2 3 1 0 2 2 4 4 7 9 21 24 28 29 28 25 22 20 11 8 7 10 13 11 8 2 10
19 17 17 19 24 18 14 13 6 1 4 3 5 4 5 3 1 4 5 3 3 4 5 6 2 4 3 3 3 3 3 2 6 4 5 5 11 17 21 23 24 22 25 25 22 21 17 20 16 17 13 18 21 27
18 15 15 18 24 16 12 15 8 6 6 2 3 2 3 4 6 5 6 3 5 5 6 8 7 2 3 6 4 4 5 5 3 5 3 7 14 16 18 18 21 21 20 18 21 23 26 24 37 28 19 27 33 28
16 13 12 18 25 18 12 17 15 3 3 3 3 6 5 5 4 3 7 10 10 8 10 9 7 2 3 4 4 5 5 6 4 5 7 11 18 17 17 17 18 21 22 24 23 20 21 22 19 23 25 28 34 26
14 11 10 18 20 17 10 12 14 5 5 4 4 4 5 6 3 5 8 8 9 8 8 7 4 7 6 4 5 6 5 5 6 6 6 10 15 15 16 19 17 20 19 19 18 18 18 21 18 19 23 27 27 25
13 6 7 19 17 13 7 6 8 5 4 3 5 7 7 9 10 10 10 10 11 11 6 2 5 4 6 4 6 6 4 4 3 5 8 9 13 15 16 16 16 18 19 20 22 21 21 22 21 20 25 27 27 27
6 4 15 18 14 5 10 2 4 4 3 2 5 7 8 8 10 10 10 10 14 10 7 4 5 5 4 4 4 3 5 2 6 6 5 7 11 14 13 14 18 20 20 22 20 21 21 18 19 21 14 19 23 23
4 11 14 17 12 3 5 6 3 3 3 4 5 7 7 7 9 10 10 9 9 7 8 5 5 7 3 3 3 4 5 4 2 5 4 6 9 13 16 14 17 19 19 19 21 16 19 19 16 14 17 18 19 20
14 13 11 13 10 3 2 3 4 2 3 2 3 4 6 6 7 9 9 12 8 8 4 4 4 6 7 7 8 8 7 8 7 4 4 4 9 9 12 19 18 18 16 16 17 17 14 15 16 17 16 16 17 18
9 7 9 9 6 4 1 3 3 1 4 3 1 6 5 5 5 6 7 8 7 7 7 5 6 7 7 7 7 8 7 8 9 8 5 6 8 11 12 15 16 17 17 16 13 17 15 14 15 15 16 16 15 16
5 5 7 4 1 3 3 2 2 3 2 2 3 1 3 1 5 5 5 6 5 5 6 6 6 6 5 7 9 12 10 12 8 8 8 9 13 13 13 14 16 15 14 15 13 13 14 15 14 13 13 14 14 18
4 7 2 1 2 0 1 2 4 2 3 2 3 3 3 4 4 5 5 3 4 4 4 5 6 7 5 7 8 7 10 13 9 9 4 13 6 7 10 11 11 12 12 13 13 12 14 14 16 12 15 17 15 15
5 3 3 2 2 1 2 2 2 1 3 4 3 3 3 2 3 3 1 1 2 3 2 6 5 4 4 4 5 4 8 12 11 10 8 11 13 7 7 10 9 8 9 9 10 11 10 11 13 14 14 14 14 15
4 3 3 1 2 2 1 2 1 2 2 3 2 4 4 4 2 2 2 2 2 2 4 3 4 5 3 6 5 6 7 12 12 11 7 11 10 10 8 7 7 8 9 12 7 8 8 9 9 13 13 15 15 13
2 2 1 4 3 3 2 2 2 2 3 3 3 3 2 0 3 2 2 2 1 2 2 0 5 5 4 4 9 6 2 9 10 9 8 10 10 10 8 8 7 8 11 11 10 8 7 8 9 12 11 13 13 12
1 3 2 1 0 3 2 3 2 4 5 3 2 1 2 4 3 4 1 2 1 1 3 4 5 5 5 6 6 9 10 10 10 10 10 9 9 10 9 7 8 9 10 10 8 8 8 9 10 9 7 5 4 9
2 2 3 1 3 3 4 3 3 4 3 3 4 1 3 3 3 3 3 2 2 2 4 3 4 5 5 6 4 4 6 6 7 8 6 7 7 8 9 9 9 12 9 11 12 12 11 10 9 9 10 10 10 11
3 1 6 3 4 4 4 5 2 3 3 1 4 3 4 1 3 3 2 6 3 3 6 1 3 3 5 6 8 8 7 6 3 4 5 4 2 6 9 8 7 6 3 4 8 10 12 12 11 10 10 10 9 9
5 5 3 7 8 5 5 4 2 4 2 5 6 6 6 4 5 5 2 3 3 5 0 4 3 1 2 4 3 1 6 7 7 5 5 5 7 9 8 9 10 9 9 3 3 4 6 6 7 9 8 8 7 6
6 1 5 10 7 10 3 7 7 9 6 6 5 5 5 5 8 5 2 1 3 2 3 6 2 0 7 7 8 7 4 1 4 7 6 6 6 8 9 9 9 10 9 9 5 3 3 4 2 4 5 7 7 8
2 3 5 8 10 6 4 7 7 4 4 6 4 4 5 4 8 7 7 6 4 2 4 4 2 1 6 10 11 10 9 5 6 2 5 7 6 7 8 8 7 7 8 8 8 8 8 7 6 7 7 8 8 8
5 6 8 10 9 2 2 4 6 6 4 4 5 3 1 2 3 3 5 4 3 2 4 7 7 10 8 7 6 6 5 6 1 1 3 8 11 11 11 8 6 5 5 6 6 6 6 6 6 5 7 8 9 9
5 4 3 4 6 3 1 4 6 4 7 3 4 4 4 5 6 4 4 6 7 10 7 8 7 7 5 5 6 5 3 7 5 4 6 6 4 7 9 10 9 8 6 5 5 5 5 6 6 6 6 6 7 8

GFSWCAN_925_spd_036.txt.gz
Wind_Speed
25 27 28 29 31 32 32 32 32 32 29 27 25 23 21 19 17 16 11 14 14 3 7 12 18 14 13 8 4 12 7 6 8 5 1 3 6 4 8 8 6 12 12 11 12 15 15 14 9 7 8 11 15 16
26 28 29 31 33 34 33 34 33 30 29 26 25 22 21 18 16 15 8 12 24 3 6 18 19 20 21 23 9 4 11 14 3 5 5 5 11 7 14 7 3 8 7 7 10 13 12 9 10 9 10 7 10 12
27 29 31 33 35 35 35 32 31 29 27 25 24 21 19 17 15 10 7 8 9 2 5 9 8 7 9 17 13 3 5 3 5 11 7 3 5 8 8 9 15 14 18 10 13 17 17 15 14 12 13 13 11 10
29 31 34 35 36 34 32 29 28 26 24 22 21 19 17 13 9 6 5 7 4 2 2 3 12 10 6 1 6 13 14 11 8 6 3 3 4 9 8 15 15 13 18 15 17 19 18 19 16 17 13 15 16 14
31 34 35 37 34 30 28 26 25 23 22 21 20 16 12 5 3 4 5 5 5 0 3 6 17 6 10 8 8 8 7 3 2 1 2 2 3 5 8 10 14 14 16 13 15 19 18 18 18 19 17 17 16 16
33 35 37 32 29 27 25 24 23 22 20 17 14 8 3 7 8 4 2 5 7 3 1 3 6 1 2 3 2 4 4 2 1 2 1 3 3 1 3 4 11 17 21 24 23 25 26 25 24 24 22 17 16 15
34 35 32 25 24 22 22 23 23 18 14 11 5 10 11 6 2 3 3 3 2 4 1 3 3 2 5 1 3 2 3 3 2 1 2 1 1 3 2 7 17 20 23 27 27 27 30 34 21 20 20 20 18 18
34 31 23 21 21 22 23 24 18 13 8 4 12 12 10 6 6 5 6 5 4 1 0 2 3 3 6 3 2 1 0 1 3 1 1 2 1 1 4 16 24 19 12 16 19 27 31 28 22 23 21 16 18 17
29 25 19 19 21 22 24 21 14 7 6 12 9 5 0 1 1 3 2 3 2 1 2 1 1 3 1 1 1 2 1 2 4 1 2 1 1 1 12 17 26 27 18 17 10 14 10 21 22 22 20 15 17 16
27 22 18 20 20 23 22 18 7 6 9 10 2 4 3 3 3 3 1 2 3 2 0 2 2 2 0 0 2 2 2 2 2 3 6 1 4 15 18 17 23 28 23 22 11 8 5 5 13 17 18 15 16 15
25 20 18 19 20 24 18 13 6 8 5 3 4 2 5 3 1 3 1 4 4 2 3 3 4 3 3 2 2 2 1 2 1 4 4 4 7 15 18 19 18 26 29 31 23 17 6 1 7 12 14 16 13 13
23 19 17 17 19 19 13 8 6 3 3 2 2 3 4 5 1 2 4 3 2 4 5 6 5 4 2 3 2 4 2 2 6 3 4 3 9 17 17 20 16 19 25 29 27 26 26 25 19 17 11 9 14 19
21 17 15 14 20 17 10 4 2 4 2 4 5 3 2 1 6 4 4 3 4 4 8 11 3 3 4 5 4 3 4 3 3 4 3 5 12 15 15 17 19 17 20 19 22 33 35 29 36 27 15 21 31 27
20 16 13 13 20 18 9 8 3 3 5 1 2 4 3 2 3 2 6 7 7 7 9 6 5 1 4 3 5 5 5 5 4 4 4 8 13 15 14 14 15 19 18 18 16 19 19 21 22 28 28 30 34 29
20 14 9 13 22 16 9 6 9 4 5 3 2 1 5 8 8 10 10 9 10 11 6 3 5 2 4 3 4 5 5 4 3 3 6 8 13 14 13 13 15 15 16 13 17 12 15 17 19 23 29 32 35 30
18 8 6 20 20 9 6 7 7 3 7 1 3 7 8 9 10 10 10 10 10 10 4 0 6 4 6 4 4 5 3 2 3 5 6 7 10 11 12 13 13 15 15 17 13 18 12 17 18 17 20 24 25 24
10 3 16 19 17 5 6 5 2 2 2 2 4 7 7 8 9 10 10 9 14 8 8 4 4 5 3 3 3 3 4 4 5 5 2 4 8 6 9 12 16 17 14 15 17 16 17 12 15 16 11 19 19 15
4 11 14 17 15 5 2 3 2 2 1 3 4 5 5 6 8 9 9 9 8 8 6 4 5 7 3 2 3 4 5 6 4 4 4 6 3 8 9 12 15 15 14 15 19 12 16 16 13 11 16 14 11 12
15 16 10 11 12 6 3 2 5 1 1 2 5 7 7 4 6 6 7 10 10 9 6 5 4 8 7 6 7 8 8 8 9 10 3 3 7 11 9 14 15 15 14 12 14 14 14 15 15 17 16 16 14 18
11 9 7 9 6 5 1 2 4 3 2 3 2 6 5 5 3 5 6 7 6 6 6 6 6 6 6 7 6 7 8 8 8 9 9 10 15 14 12 12 13 14 14 14 15 16 16 15 14 13 13 14 17 16
6 3 9 4 5 6 4 4 2 2 4 3 2 1 4 6 3 5 4 4 6 4 5 5 6 7 4 5 8 8 9 12 8 7 7 8 13 14 12 13 12 13 12 13 12 14 16 14 17 14 16 15 16 16
5 9 4 5 4 1 3 2 4 1 3 4 3 4 3 3 4 5 5 2 3 4 4 4 6 5 4 4 5 5 4 10 14 13 5 11 8 8 7 11 10 9 10 10 11 12 14 12 13 14 15 14 13 15
7 3 5 3 2 1 4 3 3 0 3 4 4 3 3 2 2 1 3 1 3 3 4 5 3 7 7 7 7 6 1 9 12 12 12 11 13 13 12 10 9 9 9 12 9 9 10 10 9 12 14 15 13 11
3 4 4 3 3 4 2 4 2 3 2 2 3 3 5 3 3 4 2 1 4 1 6 2 5 4 4 11 5 7 8 10 12 12 11 11 11 12 12 10 10 11 12 13 13 10 9 10 10 13 14 13 12 11
3 4 3 5 4 4 4 3 3 3 4 4 3 4 5 2 3 4 4 2 4 4 4 5 6 6 6 6 8 7 10 12 12 9 11 12 12 13 13 12 11 12 11 11 12 11 10 10 10 10 12 12 10 12
1 5 3 3 2 3 3 5 4 6 4 4 4 1 4 2 6 2 2 4 4 4 3 4 5 4 6 9 6 6 9 10 11 12 11 11 10 10 10 8 9 15 14 13 14 13 12 12 10 9 9 7 8 13
3 6 5 3 4 6 5 7 9 6 5 8 6 2 4 4 5 2 3 2 3 5 6 11 15 15 8 9 10 9 5 2 3 5 1 3 5 7 9 10 10 14 7 10 12 12 14 12 11 11 12 14 11 12
6 3 6 6 10 6 6 9 11 4 4 6 5 3 2 4 2 3 6 6 5 15 10 4 2 10 5 7 6 7 7 9 1 4 11 3 2 7 8 9 7 5 5 5 8 12 12 12 11 11 11 13 10 10
3 7 12 10 2 5 3 3 7 4 5 6 5 6 2 4 6 6 8 10 13 9 6 4 3 2 6 8 4 6 3 3 6 6 7 5 7 10 11 11 11 12 11 5 5 7 9 8 9 8 9 7 7 7
3 6 8 11 10 4 1 6 9 10 5 6 6 6 8 7 7 11 11 9 8 6 8 3 4 4 7 7 11 15 16 6 8 8 6 7 7 9 10 10 10 9 9 10 7 3 5 4 1 4 7 9 9 10
2 8 4 7 12 3 4 9 11 4 3 3 5 5 5 7 10 6 8 6 9 9 5 7 5 6 9 13 11 10 12 11 8 7 6 6 13 12 12 10 9 7 7 8 8 8 10 8 7 8 9 8 9 9
6 7 8 8 8 5 2 3 6 8 6 7 2 4 6 4 7 4 11 12 13 11 4 8 13 15 14 12 12 9 5 13 14 12 12 12 12 10 9 10 8 6 5 4 4 5 6 7 7 6 5 6 7 7
7 7 5 5 7 3 4 4 5 5 7 6 3 5 9 8 7 4 7 10 11 12 12 12 11 9 8 7 8 6 8 13 12 14 15 14 10 9 10 12 12 11 11 9 7 5 5 6 6 6 6 6 6 7

GFSWCAN_925_spd_039.txt.gz
Wind_Speed
23 24 27 29 31 32 33 32 29 28 26 24 22 20 17 15 12 11 8 10 10 3 4 7 6 5 7 4 3 7 7 5 4 6 4 3 4 4 5 3 9 3 4 4 4 3 3 15 14 20 2 6 10 11
24 25 28 30 32 33 34 30 28 25 23 22 21 18 15 13 11 9 5 7 15 2 3 9 18 19 15 17 5 1 5 8 3 4 4 4 5 3 8 6 13 6 1 3 7 5 9 15 20 18 10 6 8 8
25 28 31 32 33 34 29 26 24 22 21 20 19 17 14 11 8 5 3 5 4 1 4 4 3 13 7 15 10 1 2 6 5 6 4 3 4 7 5 4 8 10 10 5 9 13 17 7 7 16 20 11 7 8
27 31 32 33 34 28 26 24 23 22 21 19 19 15 11 6 3 4 3 4 3 2 1 2 6 6 10 6 6 8 7 9 4 4 2 2 3 8 4 6 7 5 9 17 13 11 14 5 16 13 18 19 20 9
29 31 33 33 26 25 24 23 22 22 21 18 15 11 7 1 5 6 4 4 3 1 2 5 13 2 8 7 7 18 11 4 3 2 3 3 3 4 3 5 3 6 13 8 11 21 15 19 17 20 18 18 19 17
30 31 31 24 23 23 23 23 23 21 16 12 9 6 7 10 8 5 2 4 3 2 0 3 3 3 7 5 7 9 6 2 2 2 2 2 5 3 4 4 6 15 20 22 24 21 23 25 21 22 17 15 17 15
29 28 26 22 22 24 25 25 22 14 11 5 8 9 8 7 4 2 2 3 3 2 0 1 1 2 3 2 3 3 7 3 2 2 0 0 1 1 0 2 14 22 24 19 10 15 16 19 13 9 10 11 11 14
28 26 23 20 22 24 25 26 15 9 5 10 10 8 8 7 6 4 5 7 4 1 1 2 1 2 1 1 1 1 2 1 1 1 0 1 0 1 2 7 18 22 22 18 16 9 15 17 19 17 10 13 14 11
26 24 20 19 21 23 24 19 10 4 9 10 7 3 1 1 1 1 2 4 2 3 2 1 2 2 4 1 1 2 1 1 2 1 2 1 1 3 8 14 20 23 24 24 19 6 10 15 18 14 13 13 13 10
25 22 18 17 18 22 24 15 5 2 7 5 1 3 2 2 2 1 1 2 3 4 3 1 2 2 2 2 2 2 2 1 2 2 3 1 0 6 10 6 10 16 23 25 22 22 9 8 6 3 10 10 10 6
24 20 16 15 16 20 18 11 1 2 3 2 4 0 4 5 1 2 2 1 2 3 4 3 1 4 4 3 2 4 2 2 0 2 1 4 4 11 12 9 5 11 15 19 22 23 20 20 16 12 8 4 5 7
23 19 15 14 13 18 14 10 3 5 4 7 6 1 4 3 3 2 3 2 1 3 3 4 5 3 3 3 3 3 3 4 4 3 3 3 7 12 12 11 10 7 12 16 23 23 24 25 25 21 16 13 14 19
21 19 15 13 12 17 15 10 8 7 10 4 4 3 2 2 2 4 3 4 3 3 4 2 1 3 3 5 4 2 2 3 3 3 2 3 7 11 12 9 11 15 9 12 14 24 30 30 36 33 19 24 24 26
21 19 14 10 13 18 14 11 8 6 4 4 2 6 1 3 4 4 7 5 6 8 10 3 3 2 2 2 3 4 3 5 4 4 3 5 7 9 10 11 10 12 14 8 10 15 18 21 21 27 30 29 27 29
21 18 10 10 20 18 11 11 11 3 4 3 1 1 3 5 7 7 7 7 7 9 6 3 2 3 3 3 3 5 4 4 1 2 2 4 5 6 8 10 8 9 10 11 9 9 11 17 18 20 21 21 23 27
21 12 5 19 21 15 7 8 10 4 4 3 1 4 5 6 7 7 7 8 8 8 6 2 3 3 5 3 5 6 3 2 3 3 2 2 3 5 8 9 7 10 10 12 15 9 11 10 11 11 13 13 17 21
15 2 13 22 20 10 8 5 7 3 3 3 2 4 3 4 5 6 6 7 11 6 5 4 4 5 3 3 2 2 2 3 2 2 2 1 3 5 6 9 10 11 9 12 14 13 11 13 13 11 7 8 8 12
4 12 17 15 19 10 4 6 2 3 3 2 3 4 3 4 3 3 3 4 5 6 5 4 5 6 3 4 4 4 5 5 5 6 4 3 2 6 8 5 11 13 6 13 14 11 17 15 9 8 12 15 18 13
21 20 13 9 13 6 4 3 0 4 2 1 1 4 4 1 2 1 3 4 4 6 3 4 4 4 5 4 5 5 5 6 6 6 3 7 7 10 3 7 13 14 9 10 15 12 12 13 13 13 14 18 14 18
15 11 5 10 8 3 4 3 3 4 2 1 2 1 1 2 1 1 3 4 3 3 3 3 4 4 4 3 3 3 4 3 4 5 4 4 12 15 7 5 6 11 10 9 14 17 16 16 15 17 15 17 14 10
8 3 12 7 3 7 3 3 2 2 3 3 2 2 2 2 1 3 1 1 2 2 2 3 3 4 6 4 3 1 3 5 4 5 6 3 10 12 6 8 8 9 9 10 6 13 12 11 14 16 14 15 14 17
5 11 4 5 4 1 3 4 3 4 2 2 2 3 2 3 1 2 1 2 3 3 2 3 2 1 3 4 5 5 5 5 13 12 7 7 4 6 7 10 7 7 10 12 10 10 8 8 13 17 17 13 11 12
9 4 4 5 1 2 5 5 3 4 3 2 3 3 3 1 2 3 2 2 3 4 9 5 6 11 9 10 12 13 9 9 5 8 9 9 11 13 13 12 12 13 10 13 16 8 7 10 14 16 13 13 17 9
5 3 4 3 4 4 3 4 4 3 4 3 2 2 8 2 1 1 3 1 4 10 5 4 2 2 7 10 2 7 5 11 12 13 14 12 9 11 14 14 17 16 12 14 15 10 12 12 11 14 13 11 18 16
2 5 2 5 4 4 7 7 4 4 7 5 8 4 3 4 3 2 8 3 5 6 5 6 4 5 4 6 5 11 14 14 10 6 13 12 11 11 13 15 21 20 19 16 16 15 15 12 9 13 12 16 12 16
0 4 5 4 2 3 4 5 5 2 2 3 6 3 4 2 2 4 8 7 1 4 5 5 4 3 2 4 3 5 8 8 6 4 8 6 7 9 6 6 10 15 10 11 14 14 14 13 13 17 15 8 15 15
3 5 6 4 2 6 3 1 1 1 3 4 4 1 0 2 3 3 5 7 2 12 14 9 6 2 3 2 6 10 9 4 4 3 8 2 7 9 7 9 10 7 10 14 15 15 14 14 12 14 13 12 13 9
5 5 5 6 5 4 4 3 3 3 3 2 3 4 4 12 2 3 3 8 14 11 9 3 3 4 2 5 6 3 2 5 6 4 14 11 8 9 10 11 9 7 9 11 12 12 12 9 12 13 7 9 10 9
5 2 3 8 9 4 7 6 5 4 2 4 6 0 4 6 4 4 3 5 7 6 6 2 3 4 6 3 8 2 6 3 8 7 7 5 7 11 12 10 10 11 11 8 7 9 9 8 9 8 11 7 7 11
5 5 5 8 8 3 6 8 6 8 5 3 6 4 4 1 3 9 5 11 9 4 5 7 6 4 9 12 12 14 17 15 16 14 6 7 11 12 12 10 9 8 7 8 7 4 6 4 3 5 7 9 9 5
4 6 3 3 11 6 1 3 6 4 8 8 6 7 4 3 8 4 14 15 10 10 11 16 20 19 16 14 13 11 15 20 20 16 17 16 14 11 10 10 9 5 4 4 5 5 6 7 7 7 6 8 7 7
4 2 3 9 6 4 3 4 4 2 3 3 4 3 5 3 2 3 10 13 13 13 18 17 16 14 13 12 12 16 19 17 18 16 15 13 11 11 12 16 15 13 8 7 11 8 7 7 8 8 6 5 4 4
5 6 5 4 4 4 4 4 2 3 6 10 3 2 1 5 6 2 3 8 9 11 12 12 12 15 13 15 14 19 20 20 18 18 17 15 12 13 14 14 14 13 12 10 9 5 7 6 6 5 5 6 6 8

GFSWCAN_925_spd_042.txt.gz
Wind_Speed
18 21 24 28 29 30 30 26 24 22 20 19 17 15 12 10 9 8 5 6 8 2 4 4 4 3 4 3 2 3 4 4 3 5 3 3 3 4 2 6 4 2 2 4 6 5 4 17 14 8 7 12 11 8
21 24 27 30 30 30 26 23 21 20 19 17 15 13 10 8 6 4 3 5 13 1 4 12 19 17 13 13 2 2 1 3 3 3 3 3 1 3 5 3 6 5 3 2 4 2 1 10 5 9 12 9 12 16
24 27 30 31 30 24 22 21 20 19 18 16 14 11 8 5 2 4 3 4 3 1 4 2 3 11 13 9 8 1 1 3 2 0 1 3 4 5 4 4 4 5 11 3 7 4 8 6 3 10 13 14 14 13
27 29 29 29 23 21 21 20 20 19 17 14 10 7 4 1 2 4 2 3 1 1 1 3 5 5 13 7 9 2 4 2 3 2 2 2 2 5 3 3 2 7 8 10 6 4 11 6 1 11 18 17 18 20
27 29 28 24 22 22 21 21 20 17 13 9 8 4 4 6 7 7 5 4 1 1 1 4 14 3 9 9 13 12 10 4 1 2 1 2 1 2 2 2 4 9 5 4 5 14 14 20 21 18 13 18 15 14
28 27 25 23 21 22 21 21 19 13 9 8 8 10 10 10 10 5 1 2 1 2 2 4 4 3 5 7 11 11 6 3 2 2 2 2 4 4 3 3 8 13 15 14 8 11 13 19 17 18 16 17 16 15
27 25 23 21 21 21 22 23 16 6 7 10 9 8 7 5 3 1 1 2 4 2 2 3 4 2 2 2 4 3 6 3 2 2 2 2 3 4 2 2 11 18 15 15 17 14 5 9 8 7 7 9 11 15
25 24 21 19 20 21 22 20 12 7 8 8 9 7 7 7 6 2 6 7 5 2 2 2 3 3 3 3 3 4 3 2 4 2 1 2 2 1 1 6 11 17 15 19 21 18 12 11 9 13 13 11 12 9
23 22 19 15 17 19 21 16 8 4 5 4 3 1 3 3 3 3 5 5 2 1 1 2 2 2 1 1 1 1 2 2 1 2 2 2 2 3 3 7 14 14 19 21 22 22 21 18 16 12 7 7 11 7
23 20 18 13 13 17 18 13 6 3 3 3 3 2 2 2 3 6 3 1 1 2 2 3 2 3 4 2 1 2 1 1 2 3 3 2 3 6 6 5 5 7 10 18 22 24 22 21 17 15 9 5 7 7
21 19 16 12 10 13 16 11 5 1 1 1 2 2 2 5 1 0 2 2 2 2 3 4 5 2 1 2 2 3 2 2 2 1 2 2 4 7 11 9 2 2 5 9 12 15 17 20 18 15 13 13 7 7
20 18 16 11 8 10 15 11 6 3 2 2 10 5 3 2 1 2 2 2 1 4 3 3 5 5 2 3 2 2 2 2 2 3 3 2 4 7 7 9 7 3 3 5 9 10 16 20 23 19 16 17 19 23
20 19 16 10 6 10 14 12 8 7 8 4 1 2 2 2 3 3 4 5 4 3 3 2 3 3 2 2 2 2 3 2 4 4 1 3 5 6 7 6 8 4 6 4 7 12 15 18 26 25 21 27 29 29
21 20 13 5 9 15 15 13 7 4 2 2 3 5 2 5 3 2 3 3 5 3 6 2 1 2 2 3 1 4 2 4 3 3 2 3 4 6 7 6 5 8 2 5 4 8 11 14 17 22 24 27 28 27
22 20 8 4 17 18 15 12 6 3 3 3 2 1 2 3 2 2 2 4 5 4 3 2 3 3 4 4 3 3 4 3 2 1 3 3 4 5 6 6 7 7 6 5 8 5 4 4 9 13 17 21 27 28
23 13 2 13 21 19 12 6 4 3 3 3 2 2 1 3 4 4 3 4 4 5 3 3 3 3 4 2 4 2 3 2 3 3 4 2 2 4 6 7 8 10 7 8 13 10 9 4 2 6 7 10 15 20
19 2 8 20 22 18 6 3 4 4 3 3 2 1 3 2 4 3 1 3 5 4 3 2 3 1 1 2 1 2 2 2 3 3 3 5 4 4 6 9 11 12 8 11 6 13 9 9 5 1 2 6 4 5
8 17 17 15 16 13 2 6 3 1 4 3 3 3 2 3 2 2 2 2 3 3 3 1 3 5 3 2 2 2 1 3 3 3 4 3 3 7 10 9 8 8 9 17 9 11 8 4 4 1 6 4 9 6
26 19 10 5 9 5 2 3 3 2 4 2 2 2 2 3 3 3 2 0 3 2 3 3 4 1 1 2 3 2 1 1 2 3 3 7 6 7 7 5 7 6 11 14 12 12 16 18 7 11 11 13 12 13
11 8 2 9 6 1 3 3 5 2 3 3 1 2 3 3 3 3 2 1 3 3 4 2 2 3 4 3 3 3 3 2 2 4 5 6 14 17 11 4 1 7 7 12 11 12 13 17 11 11 12 13 13 13
5 2 11 5 2 7 3 2 3 3 2 1 3 2 3 1 2 2 2 2 3 2 2 3 3 4 6 8 9 8 5 3 2 4 4 4 7 12 13 10 4 11 12 8 5 7 10 9 14 9 10 13 15 18
3 9 3 3 3 3 2 5 4 3 0 3 2 2 2 2 2 2 2 2 3 4 4 4 4 4 3 4 9 12 9 9 10 12 5 4 4 6 10 11 12 9 12 8 5 6 6 10 9 11 15 13 15 17
7 4 3 3 3 3 6 1 0 3 2 3 1 1 2 2 1 6 3 2 2 3 6 5 7 8 9 10 6 11 11 4 4 8 9 9 14 17 18 19 23 19 16 20 4 9 14 10 10 15 21 23 21 19
5 2 2 2 3 4 3 3 3 2 4 3 2 1 2 3 2 2 4 3 5 6 2 2 4 1 3 6 4 6 9 13 13 11 10 10 11 16 18 18 19 18 18 18 17 16 12 13 14 17 16 21 20 17
3 5 3 5 4 2 3 2 3 1 4 2 3 1 2 2 3 3 2 3 3 2 2 2 8 5 1 2 7 12 13 13 14 6 6 8 11 15 15 16 14 12 13 14 14 15 13 18 19 18 16 16 19 16
1 4 6 4 2 2 2 2 3 4 4 4 3 3 2 4 3 4 2 2 3 2 0 3 1 0 1 3 4 6 13 10 11 9 6 8 10 7 9 5 7 11 15 16 16 18 17 13 13 12 16 15 13 13
2 5 4 4 3 5 3 3 2 1 3 1 3 3 4 3 4 3 3 3 3 8 10 7 4 3 2 10 10 8 10 9 7 10 8 10 9 8 14 11 9 9 10 12 13 14 13 11 14 9 10 10 9 11
5 3 4 2 3 3 4 3 3 3 2 2 5 4 7 3 4 3 3 4 6 9 8 5 2 4 4 8 4 4 5 7 5 9 14 16 12 13 12 11 12 6 8 9 11 13 14 14 14 11 12 13 10 9
4 3 2 3 3 4 6 5 3 3 2 3 4 5 6 3 3 3 6 11 8 12 9 9 6 4 10 26 24 23 21 17 19 8 8 4 6 8 11 11 12 10 7 8 7 9 7 10 11 9 7 8 5 8
5 2 1 4 2 5 5 6 4 2 3 4 4 3 0 2 4 5 13 16 8 12 23 23 23 24 18 19 18 23 25 24 23 19 6 4 7 12 12 5 8 11 10 10 9 8 8 10 10 9 7 8 10 8
3 3 1 3 3 4 4 9 12 9 4 4 2 3 2 1 3 9 17 20 24 23 24 22 21 17 18 19 17 16 15 19 19 16 12 13 14 15 16 16 11 10 11 11 11 10 11 11 7 8 9 7 6 8
3 5 5 4 4 3 7 7 5 4 4 2 1 1 2 2 1 3 8 14 20 20 19 19 19 20 20 22 23 23 22 20 20 18 15 14 14 13 16 19 17 14 11 8 11 12 6 7 8 6 5 6 6 7
2 3 4 1 2 3 2 2 3 3 2 3 3 4 4 3 2 1 11 16 12 15 19 20 20 20 20 21 22 21 19 19 17 16 14 15 17 18 15 15 14 12 13 11 9 7 5 7 8 9 6 5 8 9

GFSWCAN_925_spd_048.txt.gz
Wind_Speed
21 23 25 25 25 25 22 20 19 18 16 13 11 7 4 3 2 4 0 4 4 2 4 2 3 3 1 2 0 4 4 3 3 2 2 2 3 1 1 6 9 5 5 5 5 5 4 18 9 6 1 4 5 8
22 25 25 25 24 23 22 20 19 18 15 11 6 5 3 0 3 5 2 2 5 2 4 9 12 9 6 3 2 1 2 3 2 3 2 3 3 5 8 3 2 3 1 1 1 2 11 13 9 3 5 4 5 8
23 25 26 24 23 23 22 20 18 15 11 7 5 4 2 1 3 3 3 3 2 1 4 4 3 6 7 7 3 0 1 2 3 1 3 2 3 3 3 3 1 3 7 1 4 2 11 11 2 4 6 4 8 7
24 25 25 23 22 22 21 18 16 11 7 6 3 3 1 2 5 3 1 3 1 3 1 3 5 4 8 10 6 3 3 3 2 2 2 2 3 5 4 4 4 4 7 5 2 3 11 7 13 11 12 6 8 7
24 26 25 22 21 20 20 17 12 7 6 6 5 4 5 4 4 2 1 3 1 2 2 3 3 2 6 9 12 11 9 3 3 3 3 4 3 4 2 1 4 6 4 3 2 8 7 9 13 16 14 10 8 10
24 25 23 21 18 18 19 14 6 7 7 8 6 5 5 4 2 2 3 3 3 2 2 3 1 4 3 4 9 9 7 3 2 2 2 2 3 4 3 3 11 13 11 9 4 13 8 11 11 14 14 15 14 10
24 24 22 19 16 15 16 9 4 6 6 5 3 2 1 1 2 1 2 4 3 1 1 3 3 3 7 1 4 2 5 2 2 1 2 1 2 4 3 5 8 10 12 14 13 11 7 11 10 15 13 14 16 16
23 24 20 19 15 12 13 8 1 3 3 2 1 1 1 3 4 3 2 2 0 0 2 2 2 1 8 2 1 1 2 2 3 1 2 2 2 1 3 7 5 10 11 13 16 14 12 12 12 14 19 15 11 10
23 23 19 17 15 10 11 8 2 3 3 3 3 5 4 2 1 3 2 2 2 1 1 1 1 3 3 1 2 1 1 2 1 2 1 1 3 3 4 6 4 5 6 9 11 12 12 16 16 16 16 17 15 13
23 22 19 17 15 9 7 8 4 2 4 4 3 1 2 1 1 1 2 1 1 1 0 3 1 2 2 2 1 3 1 2 2 0 0 3 3 4 4 6 4 4 5 7 13 15 11 12 14 16 15 13 13 13
22 21 19 17 14 8 4 7 4 3 3 2 1 1 1 1 3 1 2 1 2 3 2 3 4 2 1 1 0 1 2 1 2 2 0 1 3 4 6 7 5 2 6 5 4 6 9 9 9 11 13 14 18 20
23 21 19 17 10 5 4 7 5 4 2 2 1 1 0 1 1 1 2 2 0 3 2 2 3 3 2 1 2 0 1 1 2 0 2 1 3 5 5 5 5 2 3 4 4 5 9 13 15 12 10 12 16 19
23 22 21 16 4 3 9 8 6 8 2 1 1 1 3 1 5 2 3 4 3 3 3 1 3 2 0 1 1 1 2 1 2 2 1 4 3 4 4 3 4 1 7 6 2 1 3 5 11 12 13 16 15 18
24 25 24 12 6 6 14 11 7 6 4 2 1 4 2 4 4 4 5 4 5 4 4 1 1 1 1 1 1 3 2 3 2 1 3 3 4 5 6 1 2 4 4 6 5 4 2 1 4 11 14 18 16 17
26 28 19 7 3 11 15 10 6 8 4 2 2 3 5 4 4 4 2 3 4 2 1 1 1 2 2 3 3 3 2 1 4 4 3 3 5 4 5 3 4 5 2 5 6 4 3 5 7 10 10 16 17 16
27 19 0 4 13 17 13 2 9 4 2 2 3 2 2 1 4 3 2 4 1 1 1 2 2 3 3 1 2 1 2 3 3 2 3 3 4 4 5 2 4 5 5 4 8 8 5 4 5 8 12 8 7 11
24 3 10 19 20 10 2 4 5 4 3 3 4 3 3 3 5 4 3 4 1 2 1 2 2 1 1 2 2 3 3 3 3 3 3 3 4 6 6 6 6 2 1 2 6 10 9 5 7 9 10 8 8 6
14 16 27 19 8 1 3 5 3 3 5 4 2 3 3 3 3 3 4 2 3 3 3 2 3 2 2 2 2 3 3 3 3 3 4 5 6 9 7 7 5 2 5 3 2 2 3 3 5 6 6 6 4 6
33 23 5 4 2 2 3 3 4 3 5 2 3 2 3 3 2 2 2 1 4 3 3 2 3 3 3 3 3 2 2 3 2 2 3 8 9 11 12 7 3 6 8 4 2 3 3 4 3 3 6 7 6 7
9 2 2 4 3 2 1 3 2 1 3 3 2 3 2 1 3 2 3 2 1 3 3 3 4 2 3 2 4 3 3 3 2 2 4 4 7 8 9 10 6 7 9 5 5 7 8 6 6 6 8 9 12 11
4 3 6 1 2 3 1 1 2 4 2 2 1 2 2 3 3 3 3 1 3 3 3 2 1 1 7 9 7 5 5 7 3 3 3 3 7 8 8 7 5 5 3 5 5 6 6 5 3 6 9 12 13 13
3 7 2 2 0 1 2 5 3 2 1 2 2 2 3 3 3 3 3 3 2 2 0 2 2 3 5 6 5 4 2 6 4 2 1 3 3 3 5 6 6 5 4 2 2 4 5 4 3 8 10 11 13 16
6 2 2 1 0 2 5 1 1 2 2 4 3 3 3 3 3 4 3 1 1 1 4 5 4 12 12 13 7 11 12 9 5 5 4 6 7 7 7 9 8 6 6 7 2 5 7 5 5 12 10 9 12 14
3 2 1 0 2 3 3 2 1 2 3 4 4 4 4 3 4 3 2 2 1 3 2 3 3 3 3 2 1 5 11 10 9 5 7 11 6 3 5 7 8 8 7 5 5 8 8 8 10 11 8 10 12 12
3 3 3 4 1 1 2 2 3 3 2 3 4 3 3 2 3 2 2 3 3 2 3 6 4 1 1 3 4 2 5 9 6 6 8 8 7 6 4 8 10 9 9 7 6 8 8 9 10 9 7 6 8 9
1 3 5 3 1 2 1 1 1 1 0 1 2 2 2 2 3 3 2 2 2 2 3 3 3 3 3 1 1 1 2 8 8 2 4 8 8 5 4 2 4 5 8 7 5 4 5 8 10 9 11 6 5 7
1 3 3 2 2 3 1 1 1 2 0 3 1 1 2 3 2 3 3 3 2 3 6 6 5 5 7 12 10 6 8 12 9 5 2 7 4 4 6 11 5 3 7 7 5 2 6 10 10 10 8 5 3 6
5 2 4 2 2 2 2 2 2 3 4 2 3 2 2 3 3 3 3 4 5 9 4 9 11 14 14 11 8 10 5 5 6 16 14 10 10 5 3 9 13 11 11 7 8 7 5 7 7 9 10 9 7 4
3 2 3 3 1 1 3 5 5 3 3 4 4 3 3 2 2 2 6 14 5 8 16 17 14 16 20 21 23 20 11 9 4 5 6 3 4 7 10 12 12 8 3 3 5 6 6 11 12 10 9 8 6 5
4 4 3 3 4 4 3 5 3 3 2 3 3 2 2 1 3 6 3 4 9 12 13 11 10 13 14 18 18 21 20 19 16 9 3 2 3 3 10 3 1 3 2 4 7 9 10 10 9 10 9 8 7 7
2 2 2 2 2 2 2 4 4 3 2 2 1 3 2 1 3 6 5 8 12 15 14 15 15 13 15 15 14 12 11 13 13 12 10 8 8 5 1 2 6 10 6 4 6 8 8 8 8 8 8 8 7 8
4 6 5 3 2 1 1 2 2 2 2 2 0 1 1 2 1 2 2 6 7 7 9 14 16 11 12 15 15 14 13 13 13 12 11 11 13 13 11 11 9 8 7 7 7 7 6 7 7 7 6 6 6 6
1 2 2 4 2 3 3 3 2 2 2 2 3 4 3 4 4 3 2 8 5 9 12 14 16 17 16 14 14 13 13 14 14 14 13 11 9 12 12 11 11 11 10 9 9 9 8 7 7 7 7 6 6 6

GFSWCAN_925_spd_051.txt.gz
Wind_Speed
21 23 24 23 22 21 19 18 17 14 12 9 6 4 3 2 2 5 3 1 0 1 6 2 3 3 3 2 2 5 4 1 2 2 2 2 2 1 2 6 9 8 8 6 7 6 8 15 10 1 6 5 7 9
21 23 24 23 22 20 19 18 15 12 9 7 5 4 4 3 5 6 3 2 1 2 3 5 9 9 6 6 1 1 2 3 1 3 2 3 2 3 6 3 2 3 2 2 4 1 5 8 9 7 8 9 7 9
21 23 23 22 21 19 19 17 13 9 6 5 5 5 3 3 5 3 4 5 2 1 3 3 2 2 5 3 2 0 1 3 1 1 2 2 3 4 5 4 1 4 2 3 3 2 10 2 6 11 10 10 9 8
21 22 22 20 19 18 20 15 10 7 4 3 4 6 5 4 5 2 0 3 1 2 2 1 3 1 5 4 1 5 3 2 2 1 2 2 3 5 4 2 3 4 7 6 3 4 8 6 10 14 12 11 10 9
21 23 21 19 17 17 18 13 8 7 6 4 5 6 5 5 4 2 2 4 1 1 2 3 7 2 3 4 7 6 4 1 2 2 3 3 2 3 2 2 4 6 5 4 3 9 7 5 12 14 12 12 11 10
20 22 20 17 15 14 16 9 5 5 5 5 5 4 3 4 2 2 1 4 4 1 2 2 2 3 0 3 7 9 7 4 2 2 2 2 2 5 3 2 11 11 11 12 7 13 8 11 7 15 13 15 12 9
19 21 20 16 15 12 13 9 2 1 2 2 2 1 1 2 2 2 2 2 3 2 2 3 1 2 2 2 2 2 4 3 2 1 2 2 2 4 2 4 11 10 11 14 15 12 12 15 9 16 15 17 19 18
19 21 20 16 14 11 10 9 3 3 3 2 0 1 3 4 5 3 3 2 2 1 2 2 1 2 5 1 1 2 1 1 3 1 1 3 2 2 2 12 10 12 12 14 15 13 11 12 14 17 21 19 18 16
18 20 20 17 15 12 8 8 5 5 6 5 4 5 4 3 2 1 1 2 3 2 2 1 2 2 4 1 0 0 1 2 2 2 3 3 3 3 5 10 9 8 9 10 14 13 12 14 14 15 15 15 12 14
18 19 20 18 15 12 7 7 6 5 6 5 3 2 2 2 2 1 3 2 2 1 1 3 1 2 4 4 2 2 1 1 1 2 2 3 2 4 6 7 6 6 7 8 13 18 17 17 16 17 16 13 13 13
17 19 21 18 15 10 5 6 7 4 4 2 2 2 1 1 1 3 1 1 0 2 3 3 4 3 2 2 1 3 3 2 1 1 1 2 3 4 6 7 4 2 4 5 6 9 12 14 16 14 13 16 18 18
18 20 20 18 13 7 5 7 7 4 3 2 2 2 1 2 2 2 1 1 2 2 2 2 1 3 1 1 2 2 1 2 2 3 2 1 2 3 6 7 6 2 1 2 3 6 10 14 15 16 19 16 17 17
20 21 22 19 9 4 6 9 8 8 4 1 1 2 1 1 3 2 3 2 3 2 2 1 3 2 2 2 1 2 1 3 3 2 1 2 2 3 2 4 5 6 4 3 2 1 3 6 10 14 15 19 21 20
22 24 25 14 4 4 8 14 8 8 4 2 1 5 1 2 4 4 3 4 2 3 4 4 2 3 2 3 1 2 2 3 2 1 2 2 2 2 1 3 3 4 6 7 6 3 3 4 5 6 9 12 15 18
24 25 7 6 3 5 15 14 6 8 4 2 2 3 5 4 4 3 3 3 3 2 2 2 2 2 2 2 0 3 4 2 2 3 1 1 4 6 3 2 3 3 3 5 8 6 5 6 8 8 9 8 7 9
25 12 3 3 10 20 14 3 9 4 2 2 3 3 3 3 6 3 3 4 2 2 2 1 1 2 2 0 2 1 1 3 2 2 1 4 5 4 5 3 5 6 5 4 5 6 5 4 4 8 10 7 8 8
20 2 11 16 22 16 4 3 4 4 2 3 4 4 5 5 7 5 2 2 3 2 2 1 3 0 2 2 2 2 1 1 2 2 2 2 2 4 5 7 6 5 4 3 2 1 4 4 4 6 7 8 8 8
8 15 23 21 10 3 3 5 3 3 5 5 4 4 3 3 3 3 2 0 2 1 2 1 2 2 1 2 2 2 0 1 1 2 1 2 3 4 5 9 6 5 6 3 1 1 1 1 2 4 5 7 8 9
29 18 5 5 3 3 2 4 4 3 5 2 4 3 3 3 1 3 4 5 4 4 1 4 6 4 4 4 7 5 4 1 1 0 1 4 4 3 4 4 2 4 6 5 3 1 4 4 4 4 4 6 9 9
6 1 2 3 3 2 2 2 3 3 3 2 2 2 2 2 3 2 4 3 2 2 3 2 2 2 1 2 2 5 6 2 1 2 3 2 4 5 4 5 4 3 4 2 1 3 5 5 4 4 4 6 8 10
2 3 5 1 2 4 3 2 3 3 3 2 2 3 2 1 2 3 4 3 2 2 2 2 2 3 10 5 7 5 4 2 4 3 3 3 5 5 5 6 4 4 6 5 1 2 3 3 6 5 5 7 8 9
2 7 1 1 2 2 3 3 3 2 2 2 2 2 3 2 3 3 4 3 2 1 2 4 5 6 7 8 9 8 9 11 8 5 0 2 2 4 6 7 8 5 3 1 3 3 4 4 6 7 7 7 7 8
5 1 2 2 2 1 3 1 2 1 2 3 1 2 2 2 3 3 2 2 1 1 4 2 4 7 11 13 10 9 7 4 1 3 3 4 6 5 5 6 6 6 5 6 3 3 8 4 6 8 7 6 6 7
2 1 1 1 2 2 2 1 1 2 1 2 2 2 2 3 4 2 2 2 2 2 3 4 6 6 6 4 2 3 1 5 4 3 3 4 6 5 4 4 6 7 6 4 5 5 6 6 12 11 9 7 6 7
2 1 1 4 2 2 2 2 2 1 2 2 2 1 2 2 2 2 2 3 4 1 3 6 4 2 4 4 5 5 1 4 2 3 3 6 6 4 6 4 9 10 9 6 6 4 7 10 8 6 7 6 5 5
1 2 4 3 2 2 1 2 1 1 1 1 0 0 0 0 1 2 1 3 2 3 4 5 5 3 3 2 3 3 2 3 5 4 2 8 7 8 7 9 11 11 12 8 4 3 4 6 5 6 9 7 6 4
1 3 3 1 1 2 1 1 0 2 2 2 1 1 0 2 2 0 1 1 1 3 5 2 2 4 5 7 8 9 9 6 2 2 7 9 9 12 8 11 9 4 7 9 8 3 5 8 7 6 6 4 5 4
4 2 3 3 3 3 2 2 2 3 2 2 2 2 1 2 2 0 1 2 3 3 7 10 8 8 9 10 11 12 12 9 11 13 15 18 14 11 12 14 13 13 10 10 9 7 7 7 7 7 5 4 4 4
3 2 3 3 3 3 4 4 3 2 3 3 2 2 2 1 1 1 2 4 7 12 10 10 9 9 12 14 16 15 13 10 6 6 6 5 8 9 8 7 4 3 5 7 8 8 9 9 8 7 4 4 4 3
2 4 2 2 3 3 2 4 2 2 2 2 2 2 2 1 1 1 3 5 7 8 8 8 7 9 9 10 11 15 16 16 15 11 7 6 6 4 2 3 6 6 6 6 8 9 9 7 6 5 5 4 3 2
2 3 3 3 2 1 1 4 4 3 2 2 1 1 3 3 2 3 5 8 11 11 11 11 10 9 9 10 10 10 11 12 12 12 10 9 10 8 5 6 6 4 3 3 6 5 5 5 4 5 5 6 5 4
4 5 3 2 1 2 4 2 3 2 2 2 2 2 3 2 3 4 6 8 9 8 10 11 10 10 11 12 13 14 13 11 11 10 11 12 12 11 10 8 6 6 6 7 6 5 5 4 4 3 3 4 4 4
2 2 2 3 4 4 4 4 3 2 2 3 3 4 4 3 2 3 4 9 4 10 14 13 14 13 13 12 13 13 13 13 14 13 12 13 13 11 10 9 8 7 7 8 7 6 5 5 5 5 5 4 3 3

GFSWCAN_925_spd_054.txt.gz
Wind_Speed
17 20 21 21 20 18 16 14 11 8 6 6 6 4 2 3 4 3 4 1 2 2 6 4 3 3 2 2 3 8 4 2 2 2 3 2 3 0 3 4 6 9 7 7 11 9 14 10 10 6 7 5 6 5
16 19 21 19 19 17 16 12 9 6 5 5 4 2 2 3 4 4 2 2 1 2 4 3 3 3 4 4 3 3 4 4 1 2 1 3 2 2 3 3 3 5 3 4 4 3 9 6 12 15 12 8 6 8
16 18 19 18 17 16 15 10 6 3 4 4 4 5 4 3 4 2 1 2 1 3 5 3 5 2 2 3 4 3 3 4 2 1 2 2 2 3 4 3 4 3 4 3 2 4 7 13 11 14 12 8 7 7
15 17 18 17 15 14 14 8 5 3 2 4 6 6 4 3 3 3 2 1 3 4 4 5 3 3 2 3 1 6 9 6 3 2 2 2 3 5 4 2 2 3 7 6 4 4 14 2 8 11 13 8 6 5
14 16 17 15 13 11 12 6 4 3 3 3 5 6 4 4 3 1 3 3 2 5 4 3 6 1 1 1 3 5 5 3 2 1 2 3 1 2 3 2 3 4 3 3 3 9 8 6 10 12 10 11 7 5
13 15 16 14 11 8 9 5 1 2 2 3 3 3 4 4 2 3 3 3 4 2 3 2 2 4 4 6 8 6 5 3 2 3 1 1 1 3 4 3 8 10 11 10 5 12 7 11 7 13 11 11 11 11
12 14 16 14 11 8 6 6 2 3 2 2 2 2 3 5 4 5 5 2 3 2 3 4 3 3 3 3 2 3 2 1 3 2 2 2 1 2 2 3 9 10 11 13 12 11 8 11 7 12 11 14 16 17
11 13 15 15 12 9 6 5 3 5 5 4 2 2 4 5 7 6 3 3 3 5 3 3 1 3 4 1 1 3 3 3 1 0 1 2 3 3 1 10 9 10 10 13 15 14 13 12 14 14 15 13 14 15
11 13 14 15 13 10 7 4 4 4 6 5 4 4 3 4 3 1 2 2 3 3 2 1 3 4 4 2 2 1 3 2 2 1 2 1 2 2 5 9 8 9 9 11 13 12 15 16 15 16 18 18 16 15
11 12 15 16 14 10 6 3 3 5 4 3 1 3 3 2 3 2 2 3 4 3 3 3 2 2 4 3 1 2 1 2 1 2 2 2 2 3 4 5 4 5 6 9 13 15 16 16 17 17 18 15 15 14
11 13 15 16 14 9 3 2 3 3 2 3 3 1 2 3 2 3 2 3 2 3 4 4 4 6 3 3 1 4 2 2 2 2 2 2 3 5 3 4 3 2 3 5 7 9 11 12 13 13 13 16 18 19
12 15 17 17 15 8 3 2 4 3 3 2 2 2 2 3 4 4 1 3 3 3 3 4 4 4 1 3 3 4 3 4 2 3 2 1 1 2 2 3 3 3 1 1 4 6 10 11 12 13 14 15 16 17
14 17 20 21 14 7 4 4 6 7 2 1 3 3 3 2 2 1 2 4 3 3 4 4 5 3 2 3 3 3 4 1 3 3 1 4 5 1 1 3 3 2 2 3 1 2 6 8 10 13 13 16 18 18
16 19 21 10 7 5 3 10 7 5 3 3 3 4 3 2 4 3 7 8 6 5 7 6 4 5 4 4 4 4 2 3 2 0 3 3 4 2 1 1 3 4 4 4 1 0 4 8 10 10 12 11 11 12
17 19 3 4 4 3 13 13 5 6 3 3 3 3 4 4 6 7 6 6 6 5 5 4 4 4 5 4 3 0 3 2 3 2 4 5 4 5 3 3 3 4 3 4 5 6 4 6 9 11 11 11 12 12
19 10 5 3 10 15 14 3 6 3 3 3 4 5 5 6 8 9 7 7 5 4 5 4 5 3 5 3 2 2 2 2 3 4 4 4 5 4 4 5 6 6 4 2 3 5 5 6 9 10 11 12 11 11
15 1 7 15 18 13 8 2 4 4 3 3 4 5 7 8 9 8 9 7 7 3 5 4 5 7 6 4 3 4 4 8 6 4 3 4 4 5 6 8 7 5 5 2 2 3 3 3 6 9 10 11 11 10
4 9 16 20 10 4 2 4 3 3 5 6 5 6 5 5 7 6 5 5 4 3 2 3 2 1 1 1 1 2 1 4 5 4 2 2 3 6 7 7 8 4 5 3 0 3 2 2 2 6 6 9 8 7
20 20 11 9 7 3 3 4 4 3 4 5 4 4 4 2 3 4 4 4 5 4 5 3 3 1 2 4 3 3 5 4 3 2 2 2 3 5 4 5 6 4 3 4 3 3 8 4 7 6 5 7 9 10
10 3 2 2 7 3 3 3 3 4 4 3 3 4 3 3 3 3 4 4 3 2 4 2 2 3 2 2 4 3 2 1 3 4 7 3 4 3 5 6 7 5 5 5 5 2 2 5 5 6 8 7 8 9
2 2 3 4 4 5 3 2 3 2 4 3 3 4 3 1 4 4 6 1 5 3 3 1 2 7 5 6 7 7 5 4 5 8 7 6 6 4 3 3 3 2 5 7 5 2 8 1 4 4 5 7 6 6
2 4 2 3 4 3 4 3 4 3 3 3 2 2 2 2 3 3 4 4 3 3 1 1 2 3 4 6 10 9 8 8 7 5 3 3 4 2 3 5 3 3 3 1 3 2 3 5 3 2 4 4 4 8
3 2 3 3 3 2 3 2 3 2 3 2 2 1 1 1 3 2 1 4 2 2 1 3 6 9 10 11 9 5 1 8 6 2 5 1 3 3 5 5 7 7 5 6 5 1 8 7 2 1 3 2 4 5
2 3 2 2 3 3 1 3 2 2 2 2 1 1 1 3 2 1 3 4 4 3 1 3 6 6 6 4 3 6 2 2 2 5 6 5 5 5 2 4 7 7 7 8 2 4 5 6 6 5 2 3 5 6
2 1 2 4 3 3 3 2 2 2 2 1 2 1 1 1 1 1 4 4 5 5 4 4 5 5 6 7 8 7 2 5 4 4 1 1 3 3 5 2 5 6 7 10 3 3 5 5 5 1 6 5 3 4
1 4 4 3 2 3 1 2 1 2 3 1 1 2 1 1 1 2 4 6 5 4 5 5 5 5 6 10 9 11 12 10 8 6 3 2 8 11 3 1 10 3 1 6 4 1 4 3 2 5 5 6 4 5
2 4 4 2 2 1 2 1 2 3 2 2 1 2 2 1 1 2 2 5 4 7 6 6 8 9 8 11 11 11 11 9 7 9 11 10 9 10 6 1 6 4 3 4 3 0 5 3 4 5 3 5 4 4
3 2 5 4 3 2 3 2 2 2 1 2 2 2 2 2 2 2 3 5 6 6 7 8 9 10 11 11 10 10 9 10 12 13 14 12 8 8 9 8 8 6 6 7 6 5 5 3 6 4 4 3 3 3
4 3 3 4 4 3 3 3 2 1 1 2 1 1 2 2 4 6 6 7 7 6 6 5 5 5 6 9 11 11 9 8 6 3 6 6 7 8 7 7 6 4 8 10 9 11 10 9 6 5 4 4 3 4
3 4 3 2 3 3 2 3 0 3 1 1 3 3 3 5 6 6 8 8 6 5 6 5 5 7 7 8 9 10 12 11 10 8 6 6 8 6 4 7 8 7 7 9 9 8 4 5 4 3 4 4 2 3
1 3 3 3 2 1 1 3 3 3 3 3 1 1 4 4 6 4 6 7 8 8 7 6 6 7 8 8 6 7 9 11 11 10 9 9 8 7 7 8 7 5 4 5 5 4 4 3 4 5 4 5 5 4
4 5 3 3 2 2 3 3 3 3 4 4 4 3 4 4 5 7 10 10 9 7 7 7 8 8 8 9 10 11 10 9 9 9 8 9 9 7 6 6 5 5 5 4 3 3 3 2 4 4 3 3 4 5
3 4 4 2 3 3 4 3 3 2 3 3 3 5 6 4 3 4 9 9 5 9 10 11 12 11 10 10 11 12 11 12 12 12 10 9 9 7 6 6 6 5 4 4 4 4 3 2 4 3 4 4 4 5

GFSWCAN_925_spd_057.txt.gz
Wind_Speed
13 17 19 20 19 18 15 10 7 5 4 3 2 2 3 3 6 2 3 2 6 3 7 7 3 3 1 1 3 7 2 3 2 2 2 3 3 3 4 9 2 8 8 9 15 9 16 8 6 5 5 12 18 20
13 16 18 18 17 16 14 8 6 3 3 1 1 0 1 2 6 2 2 1 4 3 5 4 6 2 1 2 3 6 2 3 3 2 1 2 2 2 4 1 7 3 4 5 5 5 3 4 9 10 7 12 22 17
12 15 17 17 15 13 12 7 3 1 2 2 2 4 3 1 2 2 6 3 4 5 6 5 2 4 1 0 3 1 2 4 4 3 1 1 3 2 3 4 4 9 11 4 8 2 10 12 10 6 8 18 21 12
11 13 16 16 14 12 10 5 2 1 1 3 4 4 3 3 2 3 9 4 7 7 3 2 1 3 2 2 1 3 5 4 6 4 1 1 2 2 2 3 3 3 7 6 5 6 13 4 4 8 15 19 10 6
10 12 14 15 13 11 8 4 1 0 1 2 6 6 5 4 3 5 10 8 4 7 4 2 6 8 6 5 4 4 6 4 3 3 2 1 2 2 2 2 2 5 3 2 3 8 8 9 11 11 15 9 8 7
10 11 13 13 12 10 8 5 3 2 2 2 4 6 5 3 2 6 2 2 2 5 3 3 2 5 9 9 10 9 10 4 4 3 3 3 6 3 3 2 3 5 4 4 4 10 10 7 6 11 14 7 7 8
9 10 12 13 12 10 8 6 5 5 4 4 5 5 5 5 4 5 5 3 5 4 3 4 2 4 5 8 7 7 6 4 4 3 2 1 1 4 2 2 4 5 6 6 9 11 6 8 6 11 12 10 10 10
8 10 12 13 13 11 9 7 5 7 7 6 6 5 6 5 7 8 5 4 3 4 6 4 2 3 7 2 2 3 4 1 4 3 0 3 3 4 2 5 5 4 5 8 8 7 9 9 11 11 12 13 8 8
7 9 11 12 13 12 9 7 6 5 7 7 6 5 4 4 3 1 3 4 4 5 3 2 4 3 4 2 3 3 3 2 3 1 2 4 1 2 5 6 5 7 7 10 10 11 9 11 12 13 12 12 11 11
8 10 12 13 13 13 9 6 5 3 3 4 4 6 3 3 0 2 2 3 4 3 4 4 4 6 6 4 4 1 3 2 2 3 3 3 3 6 3 2 3 4 5 8 11 11 12 14 14 13 13 11 9 11
8 11 13 14 14 13 8 5 4 3 5 3 6 1 5 3 2 3 3 5 3 4 5 6 5 7 3 3 4 3 3 3 2 4 3 3 2 2 3 2 3 2 2 4 4 5 8 11 12 12 12 16 16 17
9 13 16 18 17 13 7 6 5 6 4 4 6 5 2 3 4 6 4 4 4 4 4 5 5 5 3 2 3 3 3 3 3 1 1 3 2 5 2 3 3 3 3 1 5 7 10 12 13 13 13 12 14 14
11 14 19 21 16 8 8 6 5 7 5 5 5 3 4 3 2 4 4 4 3 6 6 8 6 4 3 2 4 4 5 3 4 3 3 3 4 6 1 1 4 5 2 2 2 3 7 7 7 9 10 12 11 12
12 16 19 5 8 7 3 4 8 4 3 4 4 3 4 4 4 4 7 6 9 11 13 10 9 8 4 4 3 3 5 3 4 2 1 2 1 5 1 2 3 4 5 4 4 4 6 10 8 11 10 7 10 9
14 17 10 5 2 3 10 14 6 6 5 4 3 2 6 8 7 9 7 10 7 5 5 5 2 6 2 3 1 3 2 2 2 3 2 5 7 5 7 3 3 5 8 3 4 6 4 5 10 10 12 10 10 10
15 11 6 4 7 14 16 3 8 4 4 3 4 8 8 7 9 9 10 7 6 9 5 2 3 4 2 1 2 3 4 1 3 4 8 8 6 6 6 6 6 3 6 2 4 4 8 5 8 9 11 11 10 10
9 2 3 11 17 10 9 2 5 5 4 3 5 5 8 6 7 6 7 8 10 6 2 2 1 0 3 2 1 2 2 2 4 5 3 4 3 5 5 6 8 7 4 2 4 3 3 2 3 5 7 8 6 6
3 7 14 19 7 3 2 5 4 4 6 8 7 6 7 6 7 8 8 8 7 5 3 3 2 2 1 3 1 1 4 5 4 3 2 3 3 5 7 7 8 9 2 7 4 6 9 6 3 4 2 5 3 7
15 19 19 16 6 3 3 5 5 4 5 4 4 1 4 4 3 3 5 2 4 4 6 2 2 1 2 3 4 3 2 5 3 4 3 3 5 4 6 8 8 9 2 3 8 6 4 4 7 7 8 10 10 10
12 3 3 2 7 4 4 3 3 5 4 2 3 7 5 3 3 1 2 5 3 1 4 3 1 3 3 4 3 3 6 5 5 4 5 7 12 8 2 7 9 9 8 3 5 5 2 5 6 8 10 7 9 10
0 2 2 5 5 6 4 3 4 3 4 5 3 4 3 3 1 3 5 2 4 4 4 4 2 2 5 8 7 9 10 11 9 2 4 7 7 9 7 6 7 7 6 4 5 7 5 3 3 4 3 6 6 7
1 3 3 4 4 6 4 5 4 5 3 5 3 2 3 5 5 5 5 6 4 5 5 5 4 5 6 7 9 9 10 11 10 3 5 6 4 2 7 5 7 8 8 2 4 2 3 7 4 5 7 5 5 9
3 3 5 5 3 1 5 2 3 2 3 3 3 1 3 4 3 1 3 6 3 3 4 3 5 8 10 9 6 10 7 4 3 5 7 3 8 5 5 6 5 7 6 8 12 7 9 2 3 2 2 4 4 5
3 4 3 4 7 4 3 4 4 3 2 3 2 3 4 4 2 2 4 2 3 3 5 5 6 6 9 7 3 5 10 6 13 2 4 3 8 4 2 6 9 6 7 10 6 10 3 9 1 3 1 5 3 6
3 4 3 4 4 3 4 3 3 2 2 2 1 2 3 1 4 3 5 7 7 7 6 8 10 5 5 7 12 12 11 14 8 8 2 3 5 6 8 7 3 9 9 8 10 7 5 9 6 8 2 8 6 8
2 6 4 5 4 4 1 3 1 2 4 2 1 3 1 2 2 3 4 6 6 6 5 4 6 7 7 10 8 10 12 12 10 8 8 8 8 5 5 2 4 1 3 6 5 8 7 3 8 6 9 6 6 6
3 6 5 3 3 2 4 2 2 3 2 2 1 2 2 2 2 3 3 5 5 7 6 7 8 9 8 9 9 10 11 12 12 14 16 11 10 6 6 4 4 9 6 7 10 6 6 13 4 6 5 4 6 4
5 3 7 7 4 3 3 2 2 3 2 3 2 2 4 4 4 2 3 4 6 6 8 7 7 8 9 9 9 7 6 7 7 9 12 12 8 9 7 8 7 5 8 10 9 6 7 2 7 9 7 4 5 5
5 6 5 4 4 3 4 3 3 1 2 3 2 2 2 2 4 5 6 6 4 2 4 3 3 1 6 8 8 8 7 7 4 7 6 7 5 8 7 5 2 2 7 8 9 9 11 9 9 9 6 3 3 4
6 5 5 4 4 5 4 1 4 4 1 3 2 3 3 4 5 6 8 6 4 3 4 4 4 4 5 6 8 8 8 7 8 6 5 6 10 8 7 6 3 5 5 5 8 9 5 2 4 2 4 4 4 4
2 5 5 5 3 1 4 3 1 2 3 3 1 4 3 4 5 7 7 5 5 4 4 4 5 5 4 4 4 6 8 8 7 8 6 7 6 8 10 5 3 2 2 4 4 4 3 3 5 5 5 6 6 5
5 5 5 5 4 6 2 4 4 4 5 4 4 3 4 4 5 6 7 8 7 6 4 2 6 6 6 7 6 7 8 8 8 7 5 7 7 6 4 4 3 4 4 3 2 4 2 3 3 4 3 3 5 5
7 5 4 4 1 2 4 3 3 3 4 4 3 5 5 4 2 3 9 11 7 6 7 7 8 9 9 7 8 8 7 7 7 7 6 6 5 3 1 3 3 3 2 2 3 3 2 2 2 3 3 3 4 5

GFSWCAN_925_spd_060.txt.gz
Wind_Speed
13 14 16 18 20 18 16 12 8 5 3 3 1 2 3 3 3 8 4 7 8 4 6 7 2 1 3 1 4 6 2 3 3 3 3 4 3 4 4 9 10 6 4 6 10 11 14 5 8 12 9 12 15 15
12 12 15 17 18 16 14 12 6 3 2 2 2 1 0 2 2 7 5 4 6 6 5 9 4 0 3 3 4 2 2 4 3 1 1 3 2 3 4 4 12 2 5 4 4 4 12 7 6 9 10 12 15 15
12 11 14 16 17 14 12 11 6 3 3 3 4 3 2 2 3 5 8 9 7 7 4 3 4 5 5 4 2 2 3 3 3 2 3 2 3 1 2 2 4 10 12 5 10 3 12 12 10 11 11 12 16 16
11 9 12 15 16 13 11 10 6 3 4 4 4 4 3 4 4 6 8 11 7 7 4 5 10 5 7 4 4 3 3 2 9 4 1 2 1 2 2 4 3 5 9 9 5 6 14 4 13 14 14 15 15 20
11 8 11 13 14 13 10 8 6 4 4 3 6 6 5 5 6 9 11 8 7 4 5 8 7 10 11 12 10 8 2 7 4 3 4 3 3 4 3 2 3 3 1 2 3 10 8 12 11 13 14 15 18 14
9 7 10 12 13 13 11 8 7 6 5 4 4 5 6 6 6 5 2 5 4 5 3 4 6 7 7 10 12 11 10 8 2 5 5 3 4 4 2 2 4 8 6 8 3 9 8 9 11 9 12 13 11 11
8 7 9 11 12 13 12 9 8 7 7 6 5 5 6 6 6 6 4 2 6 4 3 4 2 3 8 7 10 8 7 6 3 5 1 5 5 4 2 2 5 5 3 9 5 2 5 6 6 12 10 16 11 13
7 7 8 10 11 12 12 10 8 7 8 8 6 6 7 7 10 9 6 12 4 4 5 4 2 3 11 3 3 4 4 4 5 4 4 2 3 2 2 6 8 7 2 5 2 6 2 0 6 10 12 13 9 9
7 7 8 10 11 13 13 10 7 6 7 7 5 5 4 4 5 1 4 6 6 6 3 4 6 3 7 4 4 3 3 4 4 4 3 4 3 3 7 4 8 9 3 5 5 8 4 0 4 9 12 12 10 10
6 7 9 10 12 13 13 9 5 4 3 4 3 6 3 3 5 2 0 3 5 5 5 5 9 6 3 4 3 3 5 5 3 5 3 4 4 8 6 3 2 1 5 6 6 6 8 11 10 7 11 10 11 10
6 8 10 12 14 15 13 8 4 3 4 3 6 3 5 3 3 3 4 5 5 5 6 7 9 8 5 4 6 4 3 3 3 5 4 5 2 6 7 8 4 6 6 3 3 7 3 6 7 6 7 10 9 9
6 9 12 15 18 18 13 8 8 8 5 7 11 12 6 4 4 6 5 5 4 3 3 1 7 6 7 6 1 3 3 3 1 3 1 0 5 5 4 3 8 6 9 9 6 1 4 6 4 4 6 10 6 3
7 10 13 17 17 8 7 9 6 7 13 8 5 3 4 4 2 5 4 4 5 7 2 6 6 1 2 2 5 2 2 1 2 2 1 1 5 4 4 3 1 5 9 3 6 4 1 2 6 3 4 7 7 7
7 12 13 13 2 7 5 2 3 4 3 4 5 4 5 5 3 1 8 4 4 5 9 5 3 2 2 3 4 3 2 3 4 1 2 6 6 8 2 5 6 5 8 9 5 1 2 3 6 7 10 8 9 6
10 13 16 7 5 1 6 11 10 7 5 4 3 3 7 5 3 7 10 10 3 6 8 8 6 4 3 2 2 3 2 2 5 3 2 3 8 5 3 2 2 7 4 8 7 5 3 5 6 9 10 8 10 7
12 11 2 3 4 11 19 6 10 6 5 4 5 8 10 5 7 5 9 6 11 7 6 3 4 3 2 3 4 5 4 4 0 1 3 3 2 4 5 5 6 10 2 7 14 8 1 4 5 7 7 6 6 6
10 1 2 6 12 14 8 4 8 5 4 4 3 3 5 2 3 2 8 9 14 7 7 4 5 5 4 3 4 4 4 4 3 4 0 1 1 3 5 8 7 12 2 5 7 5 13 2 2 4 4 7 7 6
2 1 10 16 10 5 3 6 5 5 8 6 5 8 4 6 7 6 4 5 7 7 7 5 4 4 4 5 4 3 3 1 5 4 0 2 1 3 6 8 7 9 10 3 11 7 6 5 6 8 7 4 5 13
13 15 22 20 5 3 4 8 6 4 2 2 5 2 3 2 3 3 4 6 6 6 3 2 2 3 2 4 5 3 4 5 6 6 4 2 4 14 5 8 10 11 4 9 3 7 9 4 7 9 9 12 13 13
18 8 4 2 9 5 5 3 7 5 3 4 3 6 3 7 9 5 3 2 4 3 4 4 4 4 2 5 5 3 4 6 6 7 5 9 5 12 7 7 12 15 11 4 8 7 7 1 2 5 8 7 7 10
3 3 1 5 6 8 5 4 3 5 6 4 6 2 1 4 1 4 1 6 7 5 6 5 4 4 9 12 13 12 11 12 7 6 7 4 5 14 9 2 5 11 21 20 21 13 17 13 6 9 8 15 9 11
0 1 3 6 5 7 6 9 4 7 7 4 8 5 5 6 6 9 9 3 4 4 4 4 6 6 5 4 5 7 7 11 6 6 10 7 6 4 10 5 2 7 12 9 9 17 14 9 11 10 8 5 9 10
5 4 5 7 5 1 6 10 5 5 4 2 6 0 2 3 6 5 2 2 1 1 5 4 3 8 10 12 2 6 10 2 3 4 3 5 9 11 11 15 15 7 6 8 15 17 13 14 6 3 12 5 9 7
4 4 4 4 8 4 5 6 5 3 5 4 4 3 0 3 4 4 3 6 3 4 6 7 11 4 8 3 4 2 13 11 4 6 5 18 8 14 11 12 12 7 8 7 14 11 10 5 5 10 6 8 9 8
2 5 3 5 4 6 6 11 4 6 1 5 2 4 2 1 2 2 4 5 7 7 4 3 7 7 7 7 9 11 14 12 9 8 9 10 9 7 4 2 7 12 11 8 7 11 12 18 6 11 6 7 9 8
4 6 5 6 7 4 2 5 10 10 4 2 5 5 3 1 2 2 3 5 5 5 5 5 5 6 6 9 7 10 12 13 19 12 12 13 12 13 10 8 7 8 12 10 14 11 6 14 15 3 11 10 9 7
4 7 6 6 7 5 3 9 7 1 2 4 5 3 1 5 2 2 4 5 5 6 6 7 8 8 6 7 7 9 10 10 13 12 11 12 14 9 10 7 8 10 10 14 18 11 5 1 5 6 11 7 8 10
8 6 7 9 7 7 3 3 3 2 4 4 4 4 4 2 4 3 5 8 8 7 6 6 6 6 8 7 6 5 4 8 9 8 10 10 11 10 8 10 7 8 10 14 16 14 11 9 5 10 8 7 8 6
9 9 9 7 8 4 5 7 3 4 5 4 6 5 2 3 6 6 8 7 5 2 3 4 3 5 8 8 6 6 5 6 4 5 4 6 7 10 8 5 4 5 9 11 9 6 8 8 8 9 6 5 4 5
10 10 10 6 9 3 4 3 8 7 3 5 3 5 6 7 9 8 8 5 4 3 5 4 3 2 3 6 7 6 7 7 8 7 6 7 9 9 7 6 5 6 6 6 9 8 4 2 4 3 6 8 7 8
11 9 7 8 6 6 6 17 17 2 4 3 5 3 6 6 6 3 4 5 4 4 5 4 5 3 3 2 5 6 8 6 6 6 6 7 9 9 5 4 3 4 3 4 4 5 5 4 5 6 6 7 6 6
5 6 8 1 3 4 14 9 4 4 3 2 5 6 8 3 3 5 8 7 6 6 4 1 5 6 4 4 5 8 10 9 8 8 8 7 7 6 4 3 2 4 3 2 3 5 4 4 5 4 4 4 4 5
10 6 6 4 2 3 6 8 1 4 5 2 4 7 4 3 3 2 8 11 9 4 8 7 8 9 8 8 9 8 9 8 7 6 6 6 6 3 5 5 4 2 2 0 2 3 3 3 3 4 4 5 6 6

GFSWCAN_925_spd_063.txt.gz
Wind_Speed
14 13 12 15 17 17 16 16 11 8 6 5 5 5 5 7 11 12 5 13 7 3 3 6 2 1 4 2 2 2 2 4 3 3 2 3 2 2 3 5 7 3 5 3 1 6 6 19 7 4 6 9 10 10
12 12 10 13 15 16 14 13 11 8 6 5 4 4 4 5 9 12 5 8 11 5 4 4 6 1 4 2 2 3 3 0 2 2 1 0 1 2 2 3 4 0 1 2 4 3 4 9 10 11 12 11 12 13
12 11 9 12 13 14 12 11 9 8 6 5 4 4 4 5 7 8 8 12 13 4 7 5 5 9 11 13 4 2 1 3 3 3 3 1 2 2 0 2 3 2 5 3 6 1 7 12 8 9 11 14 15 14
11 10 9 11 12 13 12 10 8 6 6 5 4 4 4 5 6 7 6 11 11 6 3 3 10 14 8 7 9 6 8 7 8 2 3 2 2 3 3 2 3 3 3 3 5 5 14 6 13 12 12 13 16 15
8 9 9 10 11 12 11 10 7 5 5 5 5 6 7 7 7 10 9 8 2 3 3 5 16 17 16 14 11 13 12 6 3 2 2 3 3 4 3 2 3 3 3 1 3 6 6 7 10 13 11 12 12 16
8 8 8 9 10 12 12 10 8 6 5 5 5 6 6 6 7 5 1 5 4 3 2 3 1 5 16 15 14 10 12 4 4 3 3 3 4 5 3 3 4 5 6 7 4 2 7 8 10 13 14 14 11 14
9 7 7 7 9 11 12 11 9 7 6 7 7 7 7 7 7 6 3 3 1 3 2 4 3 7 18 14 10 3 11 4 3 3 2 4 3 4 2 4 6 7 4 9 7 5 8 4 4 8 12 14 15 12
9 7 6 6 9 10 12 12 9 7 6 8 8 8 8 8 11 10 11 14 12 4 3 3 4 2 12 4 3 5 3 3 3 4 3 4 4 0 3 6 6 6 5 10 12 13 9 6 6 5 9 11 9 8
9 7 5 6 8 10 12 12 9 5 5 6 6 6 5 4 5 2 3 6 6 3 3 3 3 4 7 7 2 0 3 3 4 4 4 4 3 4 7 7 10 7 5 7 7 6 11 7 5 1 4 5 6 8
9 6 5 7 9 10 12 12 8 3 3 2 1 4 3 3 6 1 3 3 2 2 3 3 3 7 7 2 4 3 3 4 3 4 5 4 4 5 7 6 13 13 9 4 2 2 2 2 6 5 2 3 4 6
8 6 6 9 12 13 14 11 6 3 1 1 5 2 1 4 2 2 3 4 4 3 3 3 3 5 3 2 4 4 3 2 1 1 4 4 3 5 8 7 6 7 6 6 3 5 6 5 3 7 5 5 2 4
6 6 7 11 15 18 16 10 8 7 4 4 13 16 6 4 4 5 3 2 2 3 1 3 5 6 1 2 1 1 4 1 0 3 3 3 2 3 8 11 8 10 12 8 8 7 2 3 4 3 8 9 10 6
5 6 8 11 14 11 1 6 7 6 13 6 3 4 3 3 2 3 3 2 1 3 4 4 5 1 3 1 3 1 1 1 1 1 2 3 10 7 10 12 9 7 10 15 12 11 6 4 7 7 8 3 6 2
5 8 10 10 5 3 7 5 2 3 1 3 3 4 4 2 4 4 8 5 4 6 11 8 6 2 3 2 1 2 1 2 1 2 3 2 4 7 10 10 5 7 12 4 4 10 13 9 6 2 12 5 6 3
7 11 14 13 8 4 2 5 9 4 3 4 3 3 0 5 5 4 5 4 6 5 4 4 2 3 2 2 1 2 1 4 3 0 2 3 7 5 8 8 5 5 3 7 6 15 2 12 8 5 6 10 8 6
9 9 4 5 2 6 13 11 4 5 4 4 5 6 6 3 2 1 5 5 7 9 4 4 3 2 4 3 4 6 4 3 0 3 2 6 6 7 5 5 5 8 5 9 11 13 16 8 6 4 3 10 4 7
8 1 2 3 9 11 4 4 6 5 4 4 3 2 4 2 3 4 1 5 8 6 4 2 4 4 1 3 3 3 2 3 3 4 1 1 4 3 3 8 7 4 2 10 6 3 7 13 11 13 4 8 7 10
1 2 7 12 14 5 3 5 4 4 8 4 2 5 4 4 2 4 3 5 4 4 3 3 1 3 2 3 3 3 3 1 3 2 2 2 3 9 11 9 8 10 6 12 8 4 3 4 6 9 9 12 10 17
10 13 19 22 11 3 4 8 7 4 4 2 0 4 6 2 2 1 1 5 4 3 3 0 4 2 2 1 4 5 4 4 4 7 2 0 4 8 17 12 21 10 13 8 15 14 8 9 9 13 13 14 15 13
17 12 7 6 9 4 4 4 10 4 3 4 5 3 2 4 3 3 4 2 1 2 3 3 2 1 2 2 3 4 3 3 4 4 5 3 13 15 15 9 8 9 13 19 22 20 19 18 10 19 18 17 16 13
7 3 3 5 6 8 4 4 3 1 1 4 3 2 3 4 4 2 1 3 2 2 2 1 3 2 5 4 3 6 6 6 4 4 4 4 11 14 14 15 24 10 10 11 8 5 7 5 4 11 13 10 7 13
3 2 2 6 5 7 6 9 4 2 3 4 1 1 2 1 3 0 1 2 1 2 2 3 2 2 2 3 1 3 9 8 6 7 8 7 4 7 9 9 18 8 2 17 17 15 16 12 12 2 11 10 16 15
5 5 5 7 6 2 6 7 4 4 4 2 2 5 3 3 2 1 3 2 1 4 7 3 4 8 10 9 7 5 10 5 7 10 14 14 15 10 10 10 14 12 10 15 18 16 14 7 9 5 8 10 13 12
6 4 4 3 7 4 3 3 4 5 2 2 1 4 5 4 3 3 3 3 4 9 5 3 3 4 7 11 6 8 13 13 17 11 10 11 7 8 6 7 8 4 17 22 19 14 12 13 16 11 13 7 11 10
2 5 2 5 4 5 4 3 4 3 5 6 2 5 3 4 3 1 2 2 3 4 3 5 6 5 5 5 9 13 15 18 12 7 10 11 14 7 8 5 13 21 20 19 15 17 15 10 8 9 15 13 12 14
4 5 4 5 5 5 4 4 2 4 5 2 3 1 4 2 2 2 2 3 5 4 4 4 3 4 5 10 7 9 11 16 16 12 14 15 12 11 8 9 10 18 16 11 9 10 6 5 11 7 10 10 10 11
3 6 7 5 4 3 2 2 4 3 11 3 4 2 1 2 2 2 4 7 6 11 9 9 10 9 7 9 14 11 12 14 12 12 11 12 14 13 12 13 10 12 17 16 12 11 7 6 10 7 12 12 11 11
6 5 9 6 7 5 5 2 1 4 5 2 5 4 6 4 3 2 4 13 15 12 13 11 11 10 9 7 6 5 14 15 14 15 15 14 12 14 12 12 11 14 13 11 13 11 10 8 7 8 13 9 10 8
5 5 8 11 7 3 6 4 1 3 3 2 6 4 5 1 6 8 13 13 15 16 14 12 12 17 14 12 8 5 7 4 9 7 8 7 10 8 5 8 9 11 14 12 9 9 8 8 7 10 13 14 16 11
10 8 10 12 4 2 0 2 1 6 5 4 7 5 5 6 12 14 11 9 8 8 10 10 6 4 8 13 11 7 7 9 10 10 8 8 12 10 7 8 8 9 9 11 11 7 4 3 6 7 9 9 7 3
8 9 12 5 4 4 6 5 10 4 3 4 7 2 5 3 6 9 12 10 8 12 10 10 11 6 4 8 12 12 10 7 6 10 10 15 13 8 8 6 6 7 5 5 7 7 5 7 9 9 8 5 4 5
8 11 11 4 2 1 0 3 4 4 8 5 1 5 4 3 3 3 5 6 7 8 7 7 14 13 10 10 11 15 17 14 10 10 14 16 14 8 3 6 5 7 4 4 7 5 5 6 4 6 5 4 4 5
8 8 2 5 5 6 1 0 2 3 6 5 5 4 4 4 3 2 7 9 8 10 15 18 20 17 14 15 14 14 15 13 12 9 10 11 9 7 10 12 10 3 0 0 4 7 6 4 6 5 5 6 6 6